Observation data for Lomax on 07/11/2018      Previous  Date       Current Mesonet Observations  Soil Data  Daily Summary Page  Observations in Plain Language
KLO1 110501Z 18008KT 24/14 A3011 RMK A01 T02430143  RH  054%=      5-min Rain = 0
KLO1 110502Z 18008KT 24/14 A3011 RMK A01 T02430143  RH  053%=      5-min Rain = 0
KLO1 110503Z 18008KT 24/14 A3011 RMK A01 T02440142  RH  053%=      5-min Rain = 0
KLO1 110504Z 18008KT 24/14 A3011 RMK A01 T02440142  RH  053%=      5-min Rain = 0
KLO1 110505Z 18007KT 25/14 A3011 RMK A01 T02450143  RH  053%=      5-min Rain = 0
KLO1 110506Z 18008KT 25/14 A3011 RMK A01 T02450142  RH  053%=      5-min Rain = 0
KLO1 110507Z 18008KT 25/14 A3011 RMK A01 T02450141  RH  053%=      5-min Rain = 0
KLO1 110508Z 18008KT 25/14 A3011 RMK A01 T02450142  RH  053%=      5-min Rain = 0
KLO1 110509Z 18008KT 25/14 A3011 RMK A01 T02450142  RH  053%=      5-min Rain = 0
KLO1 110510Z 18007KT 25/14 A3011 RMK A01 T02450142  RH  053%=      5-min Rain = 0
KLO1 110511Z 18008KT 24/14 A3011 RMK A01 T02440142  RH  053%=      5-min Rain = 0
KLO1 110512Z 18007KT 24/14 A3011 RMK A01 T02440142  RH  053%=      5-min Rain = 0
KLO1 110513Z 18007KT 24/14 A3011 RMK A01 T02440142  RH  053%=      5-min Rain = 0
KLO1 110514Z 18008KT 24/14 A3011 RMK A01 T02440142  RH  053%=      5-min Rain = 0
KLO1 110515Z 18007KT 24/14 A3011 RMK A01 T02440142  RH  053%=      5-min Rain = 0
KLO1 110516Z 18008KT 24/14 A3011 RMK A01 T02440141  RH  053%=      5-min Rain = 0
KLO1 110517Z 18007KT 24/14 A3011 RMK A01 T02440142  RH  053%=      5-min Rain = 0
KLO1 110518Z 18007KT 24/14 A3011 RMK A01 T02440142  RH  053%=      5-min Rain = 0
KLO1 110519Z 18007KT 24/14 A3012 RMK A01 T02440142  RH  053%=      5-min Rain = 0
KLO1 110520Z 18007KT 24/14 A3012 RMK A01 T02440142  RH  053%=      5-min Rain = 0
KLO1 110521Z 18007KT 24/14 A3012 RMK A01 T02440143  RH  053%=      5-min Rain = 0
KLO1 110522Z 18007KT 24/14 A3012 RMK A01 T02430143  RH  053%=      5-min Rain = 0
KLO1 110523Z 18007KT 24/14 A3012 RMK A01 T02430143  RH  054%=      5-min Rain = 0
KLO1 110524Z 18007KT 24/14 A3012 RMK A01 T02420143  RH  054%=      5-min Rain = 0
KLO1 110525Z 19007KT 24/14 A3012 RMK A01 T02420144  RH  054%=      5-min Rain = 0
KLO1 110526Z 19006KT 24/14 A3012 RMK A01 T02410144  RH  055%=      5-min Rain = 0
KLO1 110527Z 19007KT 24/15 A3012 RMK A01 T02400145  RH  055%=      5-min Rain = 0
KLO1 110528Z 19007KT 24/15 A3012 RMK A01 T02400146  RH  056%=      5-min Rain = 0
KLO1 110529Z 19007KT 24/15 A3012 RMK A01 T02390146  RH  056%=      5-min Rain = 0
KLO1 110530Z 19007KT 24/15 A3012 RMK A01 T02390146  RH  056%=      5-min Rain = 0
KLO1 110531Z 19007KT 24/15 A3012 RMK A01 T02380146  RH  056%=      5-min Rain = 0
KLO1 110532Z 19007KT 24/15 A3012 RMK A01 T02380147  RH  056%=      5-min Rain = 0
KLO1 110533Z 19007KT 24/15 A3012 RMK A01 T02380146  RH  056%=      5-min Rain = 0
KLO1 110534Z 19006KT 24/15 A3012 RMK A01 T02380147  RH  057%=      5-min Rain = 0
KLO1 110535Z 19006KT 24/15 A3012 RMK A01 T02370147  RH  057%=      5-min Rain = 0
KLO1 110536Z 19006KT 24/15 A3012 RMK A01 T02370148  RH  058%=      5-min Rain = 0
KLO1 110537Z 19006KT 24/15 A3012 RMK A01 T02360148  RH  058%=      5-min Rain = 0
KLO1 110538Z 19006KT 24/15 A3012 RMK A01 T02350149  RH  058%=      5-min Rain = 0
KLO1 110539Z 19006KT 23/15 A3012 RMK A01 T02340149  RH  059%=      5-min Rain = 0
KLO1 110540Z 20006KT 23/15 A3012 RMK A01 T02330149  RH  059%=      5-min Rain = 0
KLO1 110541Z 19006KT 23/15 A3012 RMK A01 T02330150  RH  059%=      5-min Rain = 0
KLO1 110542Z 19006KT 23/15 A3012 RMK A01 T02320150  RH  060%=      5-min Rain = 0
KLO1 110543Z 19006KT 23/15 A3012 RMK A01 T02320150  RH  060%=      5-min Rain = 0
KLO1 110544Z 19006KT 23/15 A3012 RMK A01 T02320150  RH  060%=      5-min Rain = 0
KLO1 110545Z 19005KT 23/15 A3012 RMK A01 T02310150  RH  060%=      5-min Rain = 0
KLO1 110546Z 19006KT 23/15 A3012 RMK A01 T02310151  RH  060%=      5-min Rain = 0
KLO1 110547Z 19005KT 23/15 A3012 RMK A01 T02310151  RH  061%=      5-min Rain = 0
KLO1 110548Z 19005KT 23/15 A3012 RMK A01 T02310151  RH  061%=      5-min Rain = 0
KLO1 110549Z 19005KT 23/15 A3012 RMK A01 T02300151  RH  061%=      5-min Rain = 0
KLO1 110550Z 19006KT 23/15 A3012 RMK A01 T02300152  RH  061%=      5-min Rain = 0
KLO1 110551Z 19006KT 23/15 A3012 RMK A01 T02300151  RH  061%=      5-min Rain = 0
KLO1 110552Z 19006KT 23/15 A3012 RMK A01 T02300152  RH  061%=      5-min Rain = 0
KLO1 110553Z 19006KT 23/15 A3012 RMK A01 T02300152  RH  062%=      5-min Rain = 0
KLO1 110554Z 19006KT 23/15 A3011 RMK A01 T02290153  RH  062%=      5-min Rain = 0
KLO1 110555Z 19006KT 23/15 A3011 RMK A01 T02290153  RH  062%=      5-min Rain = 0
KLO1 110556Z 19006KT 23/15 A3011 RMK A01 T02280153  RH  062%=      5-min Rain = 0
KLO1 110557Z 19006KT 23/15 A3011 RMK A01 T02280153  RH  063%=      5-min Rain = 0
KLO1 110558Z 19006KT 23/15 A3011 RMK A01 T02270153  RH  063%=      5-min Rain = 0
KLO1 110559Z 19006KT 23/15 A3011 RMK A01 T02270153  RH  063%=      5-min Rain = 0
KLO1 110600Z 19006KT 23/15 A3011 RMK A01 T02270153  RH  063%=      5-min Rain = 0
KLO1 110601Z 19006KT 23/15 A3011 RMK A01 T02270153  RH  063%=      5-min Rain = 0
KLO1 110602Z 19006KT 23/15 A3012 RMK A01 T02270153  RH  063%=      5-min Rain = 0
KLO1 110603Z 19006KT 23/15 A3012 RMK A01 T02270153  RH  063%=      5-min Rain = 0
KLO1 110604Z 19006KT 23/15 A3012 RMK A01 T02270154  RH  063%=      5-min Rain = 0
KLO1 110605Z 19005KT 23/15 A3012 RMK A01 T02270154  RH  063%=      5-min Rain = 0
KLO1 110606Z 19005KT 23/15 A3012 RMK A01 T02270154  RH  063%=      5-min Rain = 0
KLO1 110607Z 19005KT 23/15 A3012 RMK A01 T02270154  RH  063%=      5-min Rain = 0
KLO1 110608Z 19005KT 23/15 A3012 RMK A01 T02270154  RH  063%=      5-min Rain = 0
KLO1 110609Z 19005KT 23/15 A3012 RMK A01 T02270154  RH  063%=      5-min Rain = 0
KLO1 110610Z 19005KT 23/15 A3012 RMK A01 T02270154  RH  063%=      5-min Rain = 0
KLO1 110611Z 19005KT 23/15 A3012 RMK A01 T02280154  RH  063%=      5-min Rain = 0
KLO1 110612Z 19005KT 23/15 A3012 RMK A01 T02270154  RH  063%=      5-min Rain = 0
KLO1 110613Z 19005KT 23/16 A3012 RMK A01 T02270155  RH  063%=      5-min Rain = 0
KLO1 110614Z 19005KT 23/16 A3012 RMK A01 T02270155  RH  064%=      5-min Rain = 0
KLO1 110615Z 19005KT 23/15 A3012 RMK A01 T02270154  RH  064%=      5-min Rain = 0
KLO1 110616Z 19005KT 23/15 A3012 RMK A01 T02260154  RH  064%=      5-min Rain = 0
KLO1 110617Z 19005KT 23/15 A3012 RMK A01 T02260154  RH  064%=      5-min Rain = 0
KLO1 110618Z 19006KT 23/15 A3012 RMK A01 T02260154  RH  064%=      5-min Rain = 0
KLO1 110619Z 19005KT 23/15 A3012 RMK A01 T02260154  RH  064%=      5-min Rain = 0
KLO1 110620Z 19006KT 23/16 A3012 RMK A01 T02260155  RH  064%=      5-min Rain = 0
KLO1 110621Z 19006KT 23/16 A3012 RMK A01 T02260155  RH  064%=      5-min Rain = 0
KLO1 110622Z 19006KT 23/16 A3012 RMK A01 T02260155  RH  064%=      5-min Rain = 0
KLO1 110623Z 19006KT 23/16 A3011 RMK A01 T02260155  RH  064%=      5-min Rain = 0
KLO1 110624Z 19006KT 23/16 A3011 RMK A01 T02250155  RH  064%=      5-min Rain = 0
KLO1 110625Z 19006KT 23/16 A3011 RMK A01 T02250155  RH  065%=      5-min Rain = 0
KLO1 110626Z 19006KT 22/16 A3011 RMK A01 T02240155  RH  065%=      5-min Rain = 0
KLO1 110627Z 19006KT 22/16 A3011 RMK A01 T02240155  RH  065%=      5-min Rain = 0
KLO1 110628Z 19006KT 22/16 A3011 RMK A01 T02240155  RH  065%=      5-min Rain = 0
KLO1 110629Z 19006KT 22/16 A3011 RMK A01 T02240155  RH  065%=      5-min Rain = 0
KLO1 110630Z 19006KT 22/16 A3011 RMK A01 T02240155  RH  065%=      5-min Rain = 0
KLO1 110631Z 19006KT 22/16 A3011 RMK A01 T02240155  RH  065%=      5-min Rain = 0
KLO1 110632Z 19006KT 22/16 A3011 RMK A01 T02240155  RH  065%=      5-min Rain = 0
KLO1 110633Z 19006KT 22/16 A3011 RMK A01 T02240155  RH  065%=      5-min Rain = 0
KLO1 110634Z 19006KT 22/16 A3011 RMK A01 T02240155  RH  065%=      5-min Rain = 0
KLO1 110635Z 19006KT 22/16 A3011 RMK A01 T02240156  RH  065%=      5-min Rain = 0
KLO1 110636Z 19006KT 22/16 A3011 RMK A01 T02240155  RH  065%=      5-min Rain = 0
KLO1 110637Z 19006KT 22/16 A3011 RMK A01 T02240156  RH  065%=      5-min Rain = 0
KLO1 110638Z 19006KT 22/16 A3011 RMK A01 T02240155  RH  065%=      5-min Rain = 0
KLO1 110639Z 19006KT 22/16 A3011 RMK A01 T02240156  RH  065%=      5-min Rain = 0
KLO1 110640Z 19006KT 23/16 A3011 RMK A01 T02250156  RH  065%=      5-min Rain = 0
KLO1 110641Z 19006KT 23/16 A3011 RMK A01 T02250156  RH  065%=      5-min Rain = 0
KLO1 110642Z 19006KT 23/16 A3011 RMK A01 T02250156  RH  065%=      5-min Rain = 0
KLO1 110643Z 19006KT 23/16 A3011 RMK A01 T02250156  RH  065%=      5-min Rain = 0
KLO1 110644Z 19006KT 23/16 A3011 RMK A01 T02260156  RH  065%=      5-min Rain = 0
KLO1 110645Z 19006KT 23/16 A3011 RMK A01 T02260156  RH  065%=      5-min Rain = 0
KLO1 110646Z 19006KT 23/16 A3011 RMK A01 T02260156  RH  065%=      5-min Rain = 0
KLO1 110647Z 19006KT 23/16 A3011 RMK A01 T02260156  RH  065%=      5-min Rain = 0
KLO1 110648Z 19006KT 23/16 A3011 RMK A01 T02260156  RH  065%=      5-min Rain = 0
KLO1 110649Z 19006KT 23/16 A3011 RMK A01 T02260157  RH  065%=      5-min Rain = 0
KLO1 110650Z 19006KT 23/16 A3011 RMK A01 T02260157  RH  065%=      5-min Rain = 0
KLO1 110651Z 19006KT 23/16 A3011 RMK A01 T02260157  RH  065%=      5-min Rain = 0
KLO1 110652Z 19006KT 23/16 A3011 RMK A01 T02260157  RH  065%=      5-min Rain = 0
KLO1 110653Z 19006KT 23/16 A3011 RMK A01 T02260157  RH  065%=      5-min Rain = 0
KLO1 110654Z 19006KT 23/16 A3011 RMK A01 T02260158  RH  065%=      5-min Rain = 0
KLO1 110655Z 19007KT 23/16 A3011 RMK A01 T02260157  RH  065%=      5-min Rain = 0
KLO1 110656Z 19007KT 23/16 A3011 RMK A01 T02260158  RH  065%=      5-min Rain = 0
KLO1 110657Z 19007KT 23/16 A3011 RMK A01 T02250158  RH  065%=      5-min Rain = 0
KLO1 110658Z 19007KT 23/16 A3011 RMK A01 T02250158  RH  066%=      5-min Rain = 0
KLO1 110659Z 19007KT 23/16 A3011 RMK A01 T02250158  RH  066%=      5-min Rain = 0
KLO1 110700Z 19007KT 23/16 A3011 RMK A01 T02250158  RH  066%=      5-min Rain = 0
KLO1 110701Z 18007KT 23/16 A3011 RMK A01 T02250158  RH  066%=      5-min Rain = 0
KLO1 110702Z 18007KT 23/16 A3011 RMK A01 T02250159  RH  066%=      5-min Rain = 0
KLO1 110703Z 18007KT 23/16 A3011 RMK A01 T02250158  RH  066%=      5-min Rain = 0
KLO1 110704Z 18007KT 23/16 A3011 RMK A01 T02250158  RH  066%=      5-min Rain = 0
KLO1 110705Z 18007KT 23/16 A3011 RMK A01 T02250158  RH  066%=      5-min Rain = 0
KLO1 110706Z 18007KT 23/16 A3011 RMK A01 T02250158  RH  066%=      5-min Rain = 0
KLO1 110707Z 18007KT 23/16 A3011 RMK A01 T02260158  RH  065%=      5-min Rain = 0
KLO1 110708Z 18006KT 23/16 A3011 RMK A01 T02260158  RH  065%=      5-min Rain = 0
KLO1 110709Z 18006KT 23/16 A3011 RMK A01 T02260159  RH  066%=      5-min Rain = 0
KLO1 110710Z 18006KT 23/16 A3011 RMK A01 T02260159  RH  066%=      5-min Rain = 0
KLO1 110711Z 18006KT 23/16 A3011 RMK A01 T02260159  RH  066%=      5-min Rain = 0
KLO1 110712Z 18006KT 23/16 A3011 RMK A01 T02260160  RH  066%=      5-min Rain = 0
KLO1 110713Z 18006KT 23/16 A3011 RMK A01 T02260160  RH  066%=      5-min Rain = 0
KLO1 110714Z 18005KT 23/16 A3011 RMK A01 T02260160  RH  066%=      5-min Rain = 0
KLO1 110715Z 18005KT 23/16 A3011 RMK A01 T02260161  RH  067%=      5-min Rain = 0
KLO1 110716Z 18005KT 23/16 A3011 RMK A01 T02260161  RH  067%=      5-min Rain = 0
KLO1 110717Z 18005KT 23/16 A3011 RMK A01 T02260161  RH  067%=      5-min Rain = 0
KLO1 110718Z 18005KT 23/16 A3011 RMK A01 T02250161  RH  067%=      5-min Rain = 0
KLO1 110719Z 18005KT 23/16 A3011 RMK A01 T02250161  RH  067%=      5-min Rain = 0
KLO1 110720Z 18005KT 23/16 A3011 RMK A01 T02250161  RH  067%=      5-min Rain = 0
KLO1 110721Z 18005KT 23/16 A3011 RMK A01 T02250161  RH  067%=      5-min Rain = 0
KLO1 110722Z 18006KT 23/16 A3011 RMK A01 T02250161  RH  067%=      5-min Rain = 0
KLO1 110723Z 18006KT 23/16 A3011 RMK A01 T02250162  RH  067%=      5-min Rain = 0
KLO1 110724Z 18006KT 22/16 A3011 RMK A01 T02240162  RH  068%=      5-min Rain = 0
KLO1 110725Z 18006KT 22/16 A3011 RMK A01 T02240162  RH  068%=      5-min Rain = 0
KLO1 110726Z 18006KT 22/16 A3011 RMK A01 T02240162  RH  068%=      5-min Rain = 0
KLO1 110727Z 18006KT 22/16 A3011 RMK A01 T02240162  RH  068%=      5-min Rain = 0
KLO1 110728Z 18006KT 22/16 A3011 RMK A01 T02240162  RH  068%=      5-min Rain = 0
KLO1 110729Z 18006KT 22/16 A3011 RMK A01 T02230162  RH  068%=      5-min Rain = 0
KLO1 110730Z 18006KT 22/16 A3011 RMK A01 T02230162  RH  068%=      5-min Rain = 0
KLO1 110731Z 18006KT 22/16 A3011 RMK A01 T02230162  RH  068%=      5-min Rain = 0
KLO1 110732Z 18006KT 22/16 A3011 RMK A01 T02230162  RH  068%=      5-min Rain = 0
KLO1 110733Z 18006KT 22/16 A3011 RMK A01 T02230161  RH  068%=      5-min Rain = 0
KLO1 110734Z 18006KT 22/16 A3011 RMK A01 T02230161  RH  068%=      5-min Rain = 0
KLO1 110735Z 18006KT 22/16 A3011 RMK A01 T02240161  RH  068%=      5-min Rain = 0
KLO1 110736Z 18006KT 22/16 A3011 RMK A01 T02240161  RH  067%=      5-min Rain = 0
KLO1 110737Z 18006KT 22/16 A3012 RMK A01 T02240161  RH  067%=      5-min Rain = 0
KLO1 110738Z 18006KT 22/16 A3012 RMK A01 T02240160  RH  067%=      5-min Rain = 0
KLO1 110739Z 18006KT 23/16 A3012 RMK A01 T02250160  RH  067%=      5-min Rain = 0
KLO1 110740Z 18006KT 23/16 A3012 RMK A01 T02250161  RH  067%=      5-min Rain = 0
KLO1 110741Z 18007KT 23/16 A3012 RMK A01 T02250161  RH  067%=      5-min Rain = 0
KLO1 110742Z 18007KT 23/16 A3012 RMK A01 T02250161  RH  067%=      5-min Rain = 0
KLO1 110743Z 18007KT 23/16 A3012 RMK A01 T02250161  RH  067%=      5-min Rain = 0
KLO1 110744Z 18006KT 23/16 A3012 RMK A01 T02250161  RH  067%=      5-min Rain = 0
KLO1 110745Z 18007KT 22/16 A3012 RMK A01 T02240161  RH  067%=      5-min Rain = 0
KLO1 110746Z 18007KT 22/16 A3012 RMK A01 T02240161  RH  067%=      5-min Rain = 0
KLO1 110747Z 18007KT 22/16 A3012 RMK A01 T02240161  RH  067%=      5-min Rain = 0
KLO1 110748Z 18006KT 22/16 A3012 RMK A01 T02240161  RH  067%=      5-min Rain = 0
KLO1 110749Z 18007KT 22/16 A3012 RMK A01 T02240161  RH  067%=      5-min Rain = 0
KLO1 110750Z 18006KT 22/16 A3012 RMK A01 T02240161  RH  067%=      5-min Rain = 0
KLO1 110751Z 18006KT 22/16 A3012 RMK A01 T02240161  RH  067%=      5-min Rain = 0
KLO1 110752Z 18006KT 22/16 A3012 RMK A01 T02240161  RH  068%=      5-min Rain = 0
KLO1 110753Z 18006KT 22/16 A3012 RMK A01 T02240161  RH  068%=      5-min Rain = 0
KLO1 110754Z 18006KT 22/16 A3012 RMK A01 T02230161  RH  068%=      5-min Rain = 0
KLO1 110755Z 18006KT 22/16 A3012 RMK A01 T02230161  RH  068%=      5-min Rain = 0
KLO1 110756Z 18006KT 22/16 A3012 RMK A01 T02230161  RH  068%=      5-min Rain = 0
KLO1 110757Z 18006KT 22/16 A3012 RMK A01 T02230161  RH  068%=      5-min Rain = 0
KLO1 110758Z 18006KT 22/16 A3012 RMK A01 T02230161  RH  068%=      5-min Rain = 0
KLO1 110759Z 18006KT 22/16 A3012 RMK A01 T02230161  RH  068%=      5-min Rain = 0
KLO1 110800Z 18006KT 22/16 A3012 RMK A01 T02240161  RH  068%=      5-min Rain = 0
KLO1 110801Z 18006KT 22/16 A3012 RMK A01 T02230161  RH  068%=      5-min Rain = 0
KLO1 110802Z 18006KT 22/16 A3012 RMK A01 T02230161  RH  068%=      5-min Rain = 0
KLO1 110803Z 18006KT 22/16 A3012 RMK A01 T02240162  RH  068%=      5-min Rain = 0
KLO1 110804Z 18006KT 22/16 A3012 RMK A01 T02230161  RH  068%=      5-min Rain = 0
KLO1 110805Z 18006KT 22/16 A3012 RMK A01 T02240161  RH  068%=      5-min Rain = 0
KLO1 110806Z 18006KT 22/16 A3012 RMK A01 T02240161  RH  068%=      5-min Rain = 0
KLO1 110807Z 18006KT 22/16 A3012 RMK A01 T02240161  RH  067%=      5-min Rain = 0
KLO1 110808Z 18006KT 22/16 A3012 RMK A01 T02240161  RH  067%=      5-min Rain = 0
KLO1 110809Z 17006KT 23/16 A3012 RMK A01 T02250161  RH  067%=      5-min Rain = 0
KLO1 110810Z 18006KT 23/16 A3012 RMK A01 T02250161  RH  067%=      5-min Rain = 0
KLO1 110811Z 17006KT 23/16 A3012 RMK A01 T02250162  RH  068%=      5-min Rain = 0
KLO1 110812Z 17006KT 23/16 A3012 RMK A01 T02250162  RH  068%=      5-min Rain = 0
KLO1 110813Z 17006KT 22/16 A3012 RMK A01 T02240162  RH  068%=      5-min Rain = 0
KLO1 110814Z 17006KT 22/16 A3012 RMK A01 T02240163  RH  068%=      5-min Rain = 0
KLO1 110815Z 17006KT 22/16 A3012 RMK A01 T02230162  RH  068%=      5-min Rain = 0
KLO1 110816Z 17006KT 22/16 A3012 RMK A01 T02230162  RH  068%=      5-min Rain = 0
KLO1 110817Z 17006KT 22/16 A3012 RMK A01 T02230162  RH  068%=      5-min Rain = 0
KLO1 110818Z 17006KT 22/16 A3012 RMK A01 T02230162  RH  068%=      5-min Rain = 0
KLO1 110819Z 17006KT 22/16 A3012 RMK A01 T02230162  RH  068%=      5-min Rain = 0
KLO1 110820Z 17005KT 22/16 A3012 RMK A01 T02230163  RH  069%=      5-min Rain = 0
KLO1 110821Z 17005KT 22/16 A3012 RMK A01 T02230163  RH  069%=      5-min Rain = 0
KLO1 110822Z 16005KT 22/16 A3012 RMK A01 T02230163  RH  069%=      5-min Rain = 0
KLO1 110823Z 16005KT 22/16 A3012 RMK A01 T02230163  RH  069%=      5-min Rain = 0
KLO1 110824Z 16005KT 22/16 A3012 RMK A01 T02230164  RH  069%=      5-min Rain = 0
KLO1 110825Z 16005KT 22/16 A3012 RMK A01 T02220164  RH  069%=      5-min Rain = 0
KLO1 110826Z 16005KT 22/16 A3012 RMK A01 T02220164  RH  070%=      5-min Rain = 0
KLO1 110827Z 16005KT 22/16 A3012 RMK A01 T02220164  RH  070%=      5-min Rain = 0
KLO1 110828Z 16005KT 22/17 A3012 RMK A01 T02220165  RH  070%=      5-min Rain = 0
KLO1 110829Z 16005KT 22/17 A3012 RMK A01 T02210165  RH  071%=      5-min Rain = 0
KLO1 110830Z 16005KT 22/17 A3012 RMK A01 T02210166  RH  071%=      5-min Rain = 0
KLO1 110831Z 16005KT 22/17 A3012 RMK A01 T02210165  RH  071%=      5-min Rain = 0
KLO1 110832Z 16005KT 22/17 A3012 RMK A01 T02210166  RH  071%=      5-min Rain = 0
KLO1 110833Z 16005KT 22/17 A3012 RMK A01 T02210166  RH  071%=      5-min Rain = 0
KLO1 110834Z 16005KT 22/17 A3012 RMK A01 T02210166  RH  071%=      5-min Rain = 0
KLO1 110835Z 16005KT 22/17 A3012 RMK A01 T02210166  RH  071%=      5-min Rain = 0
KLO1 110836Z 16005KT 22/17 A3012 RMK A01 T02200167  RH  072%=      5-min Rain = 0
KLO1 110837Z 16004KT 22/17 A3012 RMK A01 T02200167  RH  072%=      5-min Rain = 0
KLO1 110838Z 15004KT 22/17 A3012 RMK A01 T02190166  RH  072%=      5-min Rain = 0
KLO1 110839Z 15004KT 22/17 A3012 RMK A01 T02190167  RH  072%=      5-min Rain = 0
KLO1 110840Z 15004KT 22/17 A3012 RMK A01 T02190166  RH  072%=      5-min Rain = 0
KLO1 110841Z 15004KT 22/17 A3012 RMK A01 T02190166  RH  072%=      5-min Rain = 0
KLO1 110842Z 15004KT 22/17 A3012 RMK A01 T02180166  RH  072%=      5-min Rain = 0
KLO1 110843Z 15004KT 22/17 A3012 RMK A01 T02180166  RH  072%=      5-min Rain = 0
KLO1 110844Z 15004KT 22/17 A3012 RMK A01 T02180167  RH  072%=      5-min Rain = 0
KLO1 110845Z 15004KT 22/17 A3012 RMK A01 T02180167  RH  072%=      5-min Rain = 0
KLO1 110846Z 15004KT 22/17 A3012 RMK A01 T02190167  RH  072%=      5-min Rain = 0
KLO1 110847Z 15004KT 22/17 A3012 RMK A01 T02180167  RH  073%=      5-min Rain = 0
KLO1 110848Z 15004KT 22/17 A3012 RMK A01 T02190168  RH  073%=      5-min Rain = 0
KLO1 110849Z 15004KT 22/17 A3012 RMK A01 T02180168  RH  073%=      5-min Rain = 0
KLO1 110850Z 16004KT 22/17 A3012 RMK A01 T02190168  RH  073%=      5-min Rain = 0
KLO1 110851Z 16005KT 22/17 A3012 RMK A01 T02180168  RH  073%=      5-min Rain = 0
KLO1 110852Z 16004KT 22/17 A3012 RMK A01 T02190168  RH  073%=      5-min Rain = 0
KLO1 110853Z 16005KT 22/17 A3012 RMK A01 T02190168  RH  073%=      5-min Rain = 0
KLO1 110854Z 16005KT 22/17 A3012 RMK A01 T02190167  RH  072%=      5-min Rain = 0
KLO1 110855Z 16005KT 22/17 A3012 RMK A01 T02190167  RH  072%=      5-min Rain = 0
KLO1 110856Z 16005KT 22/17 A3012 RMK A01 T02190167  RH  072%=      5-min Rain = 0
KLO1 110857Z 16005KT 22/17 A3012 RMK A01 T02190167  RH  072%=      5-min Rain = 0
KLO1 110858Z 16005KT 22/17 A3012 RMK A01 T02200167  RH  072%=      5-min Rain = 0
KLO1 110859Z 16006KT 22/17 A3012 RMK A01 T02200167  RH  072%=      5-min Rain = 0
KLO1 110900Z 16006KT 22/17 A3012 RMK A01 T02200167  RH  072%=      5-min Rain = 0
KLO1 110901Z 16006KT 22/17 A3011 RMK A01 T02190168  RH  072%=      5-min Rain = 0
KLO1 110902Z 16006KT 22/17 A3011 RMK A01 T02190168  RH  073%=      5-min Rain = 0
KLO1 110903Z 16006KT 22/17 A3011 RMK A01 T02190168  RH  073%=      5-min Rain = 0
KLO1 110904Z 16006KT 22/17 A3011 RMK A01 T02180168  RH  073%=      5-min Rain = 0
KLO1 110905Z 16006KT 22/17 A3011 RMK A01 T02180168  RH  073%=      5-min Rain = 0
KLO1 110906Z 16007KT 22/17 A3011 RMK A01 T02180169  RH  073%=      5-min Rain = 0
KLO1 110907Z 16007KT 22/17 A3011 RMK A01 T02180169  RH  073%=      5-min Rain = 0
KLO1 110908Z 16007KT 22/17 A3011 RMK A01 T02180169  RH  073%=      5-min Rain = 0
KLO1 110909Z 16007KT 22/17 A3011 RMK A01 T02180169  RH  073%=      5-min Rain = 0
KLO1 110910Z 16007KT 22/17 A3011 RMK A01 T02180168  RH  073%=      5-min Rain = 0
KLO1 110911Z 16007KT 22/17 A3011 RMK A01 T02180168  RH  073%=      5-min Rain = 0
KLO1 110912Z 16007KT 22/17 A3011 RMK A01 T02190168  RH  073%=      5-min Rain = 0
KLO1 110913Z 16007KT 22/17 A3011 RMK A01 T02190169  RH  073%=      5-min Rain = 0
KLO1 110914Z 16007KT 22/17 A3011 RMK A01 T02190168  RH  073%=      5-min Rain = 0
KLO1 110915Z 16007KT 22/17 A3011 RMK A01 T02190169  RH  073%=      5-min Rain = 0
KLO1 110916Z 16007KT 22/17 A3011 RMK A01 T02190169  RH  073%=      5-min Rain = 0
KLO1 110917Z 16006KT 22/17 A3011 RMK A01 T02190169  RH  073%=      5-min Rain = 0
KLO1 110918Z 16006KT 22/17 A3011 RMK A01 T02190169  RH  073%=      5-min Rain = 0
KLO1 110919Z 16006KT 22/17 A3011 RMK A01 T02190169  RH  073%=      5-min Rain = 0
KLO1 110920Z 16006KT 22/17 A3011 RMK A01 T02190169  RH  073%=      5-min Rain = 0
KLO1 110921Z 16006KT 22/17 A3011 RMK A01 T02190169  RH  073%=      5-min Rain = 0
KLO1 110922Z 16006KT 22/17 A3011 RMK A01 T02190169  RH  073%=      5-min Rain = 0
KLO1 110923Z 16006KT 22/17 A3011 RMK A01 T02190169  RH  073%=      5-min Rain = 0
KLO1 110924Z 16006KT 22/17 A3011 RMK A01 T02190169  RH  073%=      5-min Rain = 0
KLO1 110925Z 16006KT 22/17 A3011 RMK A01 T02190170  RH  073%=      5-min Rain = 0
KLO1 110926Z 17006KT 22/17 A3011 RMK A01 T02200170  RH  073%=      5-min Rain = 0
KLO1 110927Z 16006KT 22/17 A3011 RMK A01 T02190169  RH  073%=      5-min Rain = 0
KLO1 110928Z 16007KT 22/17 A3011 RMK A01 T02190169  RH  073%=      5-min Rain = 0
KLO1 110929Z 16007KT 22/17 A3011 RMK A01 T02190169  RH  073%=      5-min Rain = 0
KLO1 110930Z 16007KT 22/17 A3011 RMK A01 T02200169  RH  073%=      5-min Rain = 0
KLO1 110931Z 16007KT 22/17 A3011 RMK A01 T02190169  RH  073%=      5-min Rain = 0
KLO1 110932Z 16007KT 22/17 A3011 RMK A01 T02190169  RH  073%=      5-min Rain = 0
KLO1 110933Z 16007KT 22/17 A3011 RMK A01 T02190169  RH  073%=      5-min Rain = 0
KLO1 110934Z 16007KT 22/17 A3011 RMK A01 T02200170  RH  073%=      5-min Rain = 0
KLO1 110935Z 16007KT 22/17 A3011 RMK A01 T02200169  RH  073%=      5-min Rain = 0
KLO1 110936Z 16007KT 22/17 A3011 RMK A01 T02200169  RH  073%=      5-min Rain = 0
KLO1 110937Z 17007KT 22/17 A3011 RMK A01 T02200170  RH  073%=      5-min Rain = 0
KLO1 110938Z 17008KT 22/17 A3011 RMK A01 T02200169  RH  073%=      5-min Rain = 0
KLO1 110939Z 17007KT 22/17 A3011 RMK A01 T02200169  RH  073%=      5-min Rain = 0
KLO1 110940Z 16008KT 22/17 A3011 RMK A01 T02200170  RH  073%=      5-min Rain = 0
KLO1 110941Z 17008KT 22/17 A3011 RMK A01 T02210169  RH  073%=      5-min Rain = 0
KLO1 110942Z 17008KT 22/17 A3011 RMK A01 T02220170  RH  072%=      5-min Rain = 0
KLO1 110943Z 16008KT 22/17 A3011 RMK A01 T02220170  RH  072%=      5-min Rain = 0
KLO1 110944Z 16007KT 22/17 A3011 RMK A01 T02220170  RH  072%=      5-min Rain = 0
KLO1 110945Z 16008KT 22/17 A3011 RMK A01 T02220169  RH  072%=      5-min Rain = 0
KLO1 110946Z 16008KT 22/17 A301 RMK A01 T02230169  RH  072%=      5-min Rain = 0
KLO1 110947Z 16008KT 22/17 A301 RMK A01 T02230169  RH  072%=      5-min Rain = 0
KLO1 110948Z 16008KT 22/17 A301 RMK A01 T02240169  RH  071%=      5-min Rain = 0
KLO1 110949Z 16008KT 22/17 A301 RMK A01 T02240170  RH  071%=      5-min Rain = 0
KLO1 110950Z 16008KT 22/17 A301 RMK A01 T02240170  RH  071%=      5-min Rain = 0
KLO1 110951Z 16009KT 22/17 A301 RMK A01 T02240169  RH  071%=      5-min Rain = 0
KLO1 110952Z 16009KT 22/17 A301 RMK A01 T02240170  RH  071%=      5-min Rain = 0
KLO1 110953Z 17008KT 23/17 A301 RMK A01 T02250170  RH  071%=      5-min Rain = 0
KLO1 110954Z 17008KT 23/17 A301 RMK A01 T02250170  RH  071%=      5-min Rain = 0
KLO1 110955Z 17009KT 23/17 A301 RMK A01 T02250170  RH  071%=      5-min Rain = 0
KLO1 110956Z 17008KT 22/17 A301 RMK A01 T02240170  RH  071%=      5-min Rain = 0
KLO1 110957Z 17008KT 22/17 A301 RMK A01 T02240170  RH  071%=      5-min Rain = 0
KLO1 110958Z 17008KT 22/17 A301 RMK A01 T02240170  RH  071%=      5-min Rain = 0
KLO1 110959Z 17008KT 22/17 A301 RMK A01 T02240170  RH  071%=      5-min Rain = 0
KLO1 111000Z 17008KT 23/17 A301 RMK A01 T02250170  RH  071%=      5-min Rain = 0
KLO1 111001Z 17008KT 22/17 A301 RMK A01 T02240170  RH  071%=      5-min Rain = 0
KLO1 111002Z 17008KT 22/17 A301 RMK A01 T02240170  RH  071%=      5-min Rain = 0
KLO1 111003Z 17008KT 22/17 A301 RMK A01 T02240170  RH  071%=      5-min Rain = 0
KLO1 111004Z 17008KT 22/17 A301 RMK A01 T02240170  RH  071%=      5-min Rain = 0
KLO1 111005Z 17008KT 22/17 A301 RMK A01 T02240170  RH  071%=      5-min Rain = 0
KLO1 111006Z 16009KT 22/17 A301 RMK A01 T02240171  RH  072%=      5-min Rain = 0
KLO1 111007Z 16008KT 22/17 A301 RMK A01 T02240171  RH  072%=      5-min Rain = 0
KLO1 111008Z 16009KT 22/17 A301 RMK A01 T02240171  RH  072%=      5-min Rain = 0
KLO1 111009Z 16008KT 22/17 A301 RMK A01 T02240171  RH  072%=      5-min Rain = 0
KLO1 111010Z 16008KT 22/17 A301 RMK A01 T02240170  RH  071%=      5-min Rain = 0
KLO1 111011Z 17008KT 22/17 A301 RMK A01 T02240171  RH  072%=      5-min Rain = 0
KLO1 111012Z 16009KT 22/17 A301 RMK A01 T02240171  RH  072%=      5-min Rain = 0
KLO1 111013Z 16008KT 22/17 A301 RMK A01 T02240171  RH  072%=      5-min Rain = 0
KLO1 111014Z 16008KT 22/17 A301 RMK A01 T02240171  RH  072%=      5-min Rain = 0
KLO1 111015Z 16008KT 23/17 A301 RMK A01 T02250171  RH  072%=      5-min Rain = 0
KLO1 111016Z 16008KT 22/17 A301 RMK A01 T02240171  RH  072%=      5-min Rain = 0
KLO1 111017Z 16009KT 22/17 A301 RMK A01 T02240172  RH  072%=      5-min Rain = 0
KLO1 111018Z 16008KT 22/17 A301 RMK A01 T02240172  RH  072%=      5-min Rain = 0
KLO1 111019Z 16009KT 22/17 A301 RMK A01 T02240172  RH  072%=      5-min Rain = 0
KLO1 111020Z 16008KT 23/17 A301 RMK A01 T02250172  RH  072%=      5-min Rain = 0
KLO1 111021Z 16008KT 23/17 A301 RMK A01 T02250172  RH  072%=      5-min Rain = 0
KLO1 111022Z 16009KT 23/17 A301 RMK A01 T02250172  RH  072%=      5-min Rain = 0
KLO1 111023Z 16009KT 23/17 A301 RMK A01 T02250172  RH  072%=      5-min Rain = 0
KLO1 111024Z 16008KT 23/17 A301 RMK A01 T02250172  RH  072%=      5-min Rain = 0
KLO1 111025Z 16009KT 23/17 A301 RMK A01 T02250172  RH  072%=      5-min Rain = 0
KLO1 111026Z 16009KT 23/17 A301 RMK A01 T02250172  RH  072%=      5-min Rain = 0
KLO1 111027Z 16009KT 23/17 A301 RMK A01 T02250172  RH  072%=      5-min Rain = 0
KLO1 111028Z 16009KT 23/17 A301 RMK A01 T02250172  RH  072%=      5-min Rain = 0
KLO1 111029Z 16008KT 23/17 A301 RMK A01 T02250172  RH  072%=      5-min Rain = 0
KLO1 111030Z 16009KT 23/17 A301 RMK A01 T02250172  RH  072%=      5-min Rain = 0
KLO1 111031Z 17010KT 23/17 A301 RMK A01 T02250172  RH  072%=      5-min Rain = 0
KLO1 111032Z 17009KT 23/17 A301 RMK A01 T02250172  RH  072%=      5-min Rain = 0
KLO1 111033Z 17009KT 23/17 A301 RMK A01 T02260173  RH  072%=      5-min Rain = 0
KLO1 111034Z 17009KT 23/17 A301 RMK A01 T02260173  RH  072%=      5-min Rain = 0
KLO1 111035Z 17009KT 23/17 A301 RMK A01 T02260173  RH  072%=      5-min Rain = 0
KLO1 111036Z 17009KT 23/17 A301 RMK A01 T02260173  RH  072%=      5-min Rain = 0
KLO1 111037Z 16009KT 23/17 A301 RMK A01 T02260173  RH  072%=      5-min Rain = 0
KLO1 111038Z 16008KT 23/17 A301 RMK A01 T02260173  RH  072%=      5-min Rain = 0
KLO1 111039Z 17009KT 23/17 A301 RMK A01 T02260173  RH  072%=      5-min Rain = 0
KLO1 111040Z 17009KT 23/17 A301 RMK A01 T02250173  RH  072%=      5-min Rain = 0
KLO1 111041Z 17009KT 23/17 A301 RMK A01 T02250173  RH  072%=      5-min Rain = 0
KLO1 111042Z 16009KT 23/17 A301 RMK A01 T02250173  RH  072%=      5-min Rain = 0
KLO1 111043Z 16009KT 23/17 A301 RMK A01 T02250173  RH  072%=      5-min Rain = 0
KLO1 111044Z 16010KT 23/17 A301 RMK A01 T02250173  RH  072%=      5-min Rain = 0
KLO1 111045Z 17009KT 23/17 A301 RMK A01 T02260173  RH  072%=      5-min Rain = 0
KLO1 111046Z 17009KT 23/17 A301 RMK A01 T02260174  RH  072%=      5-min Rain = 0
KLO1 111047Z 17009KT 23/17 A301 RMK A01 T02260174  RH  072%=      5-min Rain = 0
KLO1 111048Z 17009KT 23/17 A301 RMK A01 T02260173  RH  072%=      5-min Rain = 0
KLO1 111049Z 16010KT 23/17 A301 RMK A01 T02260173  RH  072%=      5-min Rain = 0
KLO1 111050Z 17009KT 23/17 A301 RMK A01 T02270174  RH  072%=      5-min Rain = 0
KLO1 111051Z 17010KT 23/17 A301 RMK A01 T02260174  RH  072%=      5-min Rain = 0
KLO1 111052Z 17009KT 23/17 A301 RMK A01 T02270174  RH  072%=      5-min Rain = 0
KLO1 111053Z 17009KT 23/17 A301 RMK A01 T02270174  RH  072%=      5-min Rain = 0
KLO1 111054Z 17009KT 23/17 A301 RMK A01 T02270174  RH  072%=      5-min Rain = 0
KLO1 111055Z 17009KT 23/17 A301 RMK A01 T02270174  RH  072%=      5-min Rain = 0
KLO1 111056Z 17009KT 23/17 A301 RMK A01 T02270174  RH  072%=      5-min Rain = 0
KLO1 111057Z 17009KT 23/17 A301 RMK A01 T02270174  RH  072%=      5-min Rain = 0
KLO1 111058Z 17010KT 23/18 A301 RMK A01 T02270175  RH  072%=      5-min Rain = 0
KLO1 111059Z 17010KT 23/18 A301 RMK A01 T02270175  RH  072%=      5-min Rain = 0
KLO1 111100Z 16009KT 23/18 A301 RMK A01 T02270175  RH  072%=      5-min Rain = 0
KLO1 111101Z 17009KT 23/18 A301 RMK A01 T02270175  RH  072%=      5-min Rain = 0
KLO1 111102Z 17009KT 23/18 A301 RMK A01 T02270175  RH  073%=      5-min Rain = 0
KLO1 111103Z 16009KT 23/18 A301 RMK A01 T02260175  RH  073%=      5-min Rain = 0
KLO1 111104Z 17009KT 23/18 A301 RMK A01 T02260175  RH  073%=      5-min Rain = 0
KLO1 111105Z 16009KT 23/18 A301 RMK A01 T02260175  RH  073%=      5-min Rain = 0
KLO1 111106Z 16009KT 23/18 A301 RMK A01 T02270175  RH  073%=      5-min Rain = 0
KLO1 111107Z 16009KT 23/18 A301 RMK A01 T02270175  RH  073%=      5-min Rain = 0
KLO1 111108Z 16009KT 23/18 A301 RMK A01 T02270176  RH  073%=      5-min Rain = 0
KLO1 111109Z 16009KT 23/18 A3011 RMK A01 T02260176  RH  073%=      5-min Rain = 0
KLO1 111110Z 16009KT 23/18 A3011 RMK A01 T02270176  RH  073%=      5-min Rain = 0
KLO1 111111Z 16008KT 23/18 A3011 RMK A01 T02260176  RH  073%=      5-min Rain = 0
KLO1 111112Z 16009KT 23/18 A3011 RMK A01 T02260176  RH  073%=      5-min Rain = 0
KLO1 111113Z 16009KT 23/18 A3011 RMK A01 T02260176  RH  073%=      5-min Rain = 0
KLO1 111114Z 16008KT 23/18 A3011 RMK A01 T02260177  RH  074%=      5-min Rain = 0
KLO1 111115Z 16008KT 23/18 A3011 RMK A01 T02260177  RH  074%=      5-min Rain = 0
KLO1 111116Z 16008KT 23/18 A3011 RMK A01 T02250177  RH  074%=      5-min Rain = 0
KLO1 111117Z 16008KT 23/18 A3011 RMK A01 T02250177  RH  074%=      5-min Rain = 0
KLO1 111118Z 16008KT 23/18 A3011 RMK A01 T02250177  RH  074%=      5-min Rain = 0
KLO1 111119Z 16008KT 23/18 A3011 RMK A01 T02250177  RH  074%=      5-min Rain = 0
KLO1 111120Z 16009KT 23/18 A3011 RMK A01 T02250178  RH  074%=      5-min Rain = 0
KLO1 111121Z 16008KT 23/18 A3011 RMK A01 T02250177  RH  074%=      5-min Rain = 0
KLO1 111122Z 17009KT 23/18 A3011 RMK A01 T02250178  RH  074%=      5-min Rain = 0
KLO1 111123Z 16008KT 23/18 A3011 RMK A01 T02250178  RH  074%=      5-min Rain = 0
KLO1 111124Z 16009KT 23/18 A3011 RMK A01 T02250178  RH  074%=      5-min Rain = 0
KLO1 111125Z 16008KT 23/18 A3011 RMK A01 T02260178  RH  074%=      5-min Rain = 0
KLO1 111126Z 17008KT 23/18 A3011 RMK A01 T02260179  RH  075%=      5-min Rain = 0
KLO1 111127Z 17008KT 23/18 A3011 RMK A01 T02250179  RH  075%=      5-min Rain = 0
KLO1 111128Z 17008KT 23/18 A3011 RMK A01 T02250179  RH  075%=      5-min Rain = 0
KLO1 111129Z 16008KT 23/18 A3011 RMK A01 T02250179  RH  075%=      5-min Rain = 0
KLO1 111130Z 17009KT 23/18 A3011 RMK A01 T02250179  RH  075%=      5-min Rain = 0
KLO1 111131Z 17008KT 23/18 A3012 RMK A01 T02250179  RH  075%=      5-min Rain = 0
KLO1 111132Z 17008KT 23/18 A3012 RMK A01 T02260179  RH  075%=      5-min Rain = 0
KLO1 111133Z 16008KT 23/18 A3012 RMK A01 T02250179  RH  075%=      5-min Rain = 0
KLO1 111134Z 17008KT 23/18 A3012 RMK A01 T02250179  RH  075%=      5-min Rain = 0
KLO1 111135Z 16009KT 23/18 A3012 RMK A01 T02250180  RH  076%=      5-min Rain = 0
KLO1 111136Z 17008KT 23/18 A3012 RMK A01 T02250180  RH  076%=      5-min Rain = 0
KLO1 111137Z 17008KT 23/18 A3012 RMK A01 T02250180  RH  076%=      5-min Rain = 0
KLO1 111138Z 17009KT 23/18 A3012 RMK A01 T02250180  RH  076%=      5-min Rain = 0
KLO1 111139Z 17009KT 23/18 A3012 RMK A01 T02250180  RH  076%=      5-min Rain = 0
KLO1 111140Z 17009KT 23/18 A3012 RMK A01 T02250180  RH  076%=      5-min Rain = 0
KLO1 111141Z 17008KT 23/18 A3012 RMK A01 T02250180  RH  076%=      5-min Rain = 0
KLO1 111142Z 17009KT 23/18 A3012 RMK A01 T02250180  RH  076%=      5-min Rain = 0
KLO1 111143Z 17009KT 23/18 A3012 RMK A01 T02250181  RH  076%=      5-min Rain = 0
KLO1 111144Z 17008KT 23/18 A3012 RMK A01 T02250181  RH  076%=      5-min Rain = 0
KLO1 111145Z 17009KT 23/18 A3012 RMK A01 T02250181  RH  076%=      5-min Rain = 0
KLO1 111146Z 17010KT 23/18 A3012 RMK A01 T02250181  RH  076%=      5-min Rain = 0
KLO1 111147Z 17010KT 23/18 A3012 RMK A01 T02250181  RH  076%=      5-min Rain = 0
KLO1 111148Z 17009KT 23/18 A3012 RMK A01 T02250181  RH  076%=      5-min Rain = 0
KLO1 111149Z 17009KT 23/18 A3012 RMK A01 T02250181  RH  076%=      5-min Rain = 0
KLO1 111150Z 16010KT 23/18 A3012 RMK A01 T02250182  RH  076%=      5-min Rain = 0
KLO1 111151Z 17009KT 23/18 A3012 RMK A01 T02260182  RH  076%=      5-min Rain = 0
KLO1 111152Z 17008KT 23/18 A3012 RMK A01 T02260182  RH  076%=      5-min Rain = 0
KLO1 111153Z 17009KT 23/18 A3011 RMK A01 T02260182  RH  076%=      5-min Rain = 0
KLO1 111154Z 17010KT 23/18 A3011 RMK A01 T02250182  RH  076%=      5-min Rain = 0
KLO1 111155Z 17010KT 23/18 A3011 RMK A01 T02260182  RH  077%=      5-min Rain = 0
KLO1 111156Z 17009KT 23/18 A3011 RMK A01 T02260183  RH  077%=      5-min Rain = 0
KLO1 111157Z 17009KT 23/18 A3012 RMK A01 T02260183  RH  077%=      5-min Rain = 0
KLO1 111158Z 17008KT 23/18 A3012 RMK A01 T02250183  RH  077%=      5-min Rain = 0
KLO1 111159Z 17009KT 23/18 A3012 RMK A01 T02250183  RH  077%=      5-min Rain = 0
KLO1 111200Z 17009KT 23/18 A3012 RMK A01 T02250183  RH  077%=      5-min Rain = 0
KLO1 111201Z 17011KT 23/18 A3012 RMK A01 T02250183  RH  077%=      5-min Rain = 0
KLO1 111202Z 17011KT 23/18 A3012 RMK A01 T02260184  RH  077%=      5-min Rain = 0
KLO1 111203Z 17009KT 23/18 A3012 RMK A01 T02270184  RH  077%=      5-min Rain = 0
KLO1 111204Z 17010KT 23/18 A3012 RMK A01 T02270184  RH  077%=      5-min Rain = 0
KLO1 111205Z 17009KT 23/18 A3012 RMK A01 T02270184  RH  077%=      5-min Rain = 0
KLO1 111206Z 17010KT 23/18 A3012 RMK A01 T02270184  RH  077%=      5-min Rain = 0
KLO1 111207Z 17010KT 23/19 A3012 RMK A01 T02270185  RH  077%=      5-min Rain = 0
KLO1 111208Z 17010KT 23/19 A3012 RMK A01 T02270185  RH  077%=      5-min Rain = 0
KLO1 111209Z 17011KT 23/19 A3012 RMK A01 T02270185  RH  077%=      5-min Rain = 0
KLO1 111210Z 17010KT 23/19 A3012 RMK A01 T02270185  RH  077%=      5-min Rain = 0
KLO1 111211Z 17010KT 23/19 A3012 RMK A01 T02280185  RH  077%=      5-min Rain = 0
KLO1 111212Z 17009KT 23/19 A3012 RMK A01 T02280185  RH  077%=      5-min Rain = 0
KLO1 111213Z 17009KT 23/19 A3012 RMK A01 T02280186  RH  077%=      5-min Rain = 0
KLO1 111214Z 16009KT 23/19 A3012 RMK A01 T02270185  RH  077%=      5-min Rain = 0
KLO1 111215Z 17010KT 23/19 A3012 RMK A01 T02270185  RH  077%=      5-min Rain = 0
KLO1 111216Z 17008KT 23/19 A3012 RMK A01 T02270185  RH  077%=      5-min Rain = 0
KLO1 111217Z 16009KT 23/19 A3012 RMK A01 T02270186  RH  077%=      5-min Rain = 0
KLO1 111218Z 16009KT 23/19 A3012 RMK A01 T02270186  RH  077%=      5-min Rain = 0
KLO1 111219Z 16010KT 23/19 A3012 RMK A01 T02270186  RH  077%=      5-min Rain = 0
KLO1 111220Z 17011KT 23/19 A3012 RMK A01 T02270186  RH  077%=      5-min Rain = 0
KLO1 111221Z 16009KT 23/19 A3012 RMK A01 T02280186  RH  077%=      5-min Rain = 0
KLO1 111222Z 16010KT 23/19 A3012 RMK A01 T02280186  RH  077%=      5-min Rain = 0
KLO1 111223Z 17010KT 23/19 A3012 RMK A01 T02280186  RH  077%=      5-min Rain = 0
KLO1 111224Z 16009KT 23/19 A3012 RMK A01 T02280186  RH  077%=      5-min Rain = 0
KLO1 111225Z 17009KT 23/19 A3012 RMK A01 T02280186  RH  077%=      5-min Rain = 0
KLO1 111226Z 17009KT 23/19 A3012 RMK A01 T02290187  RH  077%=      5-min Rain = 0
KLO1 111227Z 17010KT 23/19 A3012 RMK A01 T02280187  RH  077%=      5-min Rain = 0
KLO1 111228Z 17008KT 23/19 A3013 RMK A01 T02290187  RH  077%=      5-min Rain = 0
KLO1 111229Z 17007KT 23/19 A3013 RMK A01 T02290187  RH  077%=      5-min Rain = 0
KLO1 111230Z 17008KT 23/19 A3013 RMK A01 T02290187  RH  077%=      5-min Rain = 0
KLO1 111231Z 17009KT 23/19 A3013 RMK A01 T02300187  RH  077%=      5-min Rain = 0
KLO1 111232Z 17009KT 23/19 A3013 RMK A01 T02300187  RH  077%=      5-min Rain = 0
KLO1 111233Z 17008KT 23/19 A3013 RMK A01 T02300188  RH  077%=      5-min Rain = 0
KLO1 111234Z 17008KT 23/19 A3013 RMK A01 T02310187  RH  077%=      5-min Rain = 0
KLO1 111235Z 17009KT 23/19 A3013 RMK A01 T02310187  RH  077%=      5-min Rain = 0
KLO1 111236Z 17009KT 23/19 A3013 RMK A01 T02310188  RH  076%=      5-min Rain = 0
KLO1 111237Z 17008KT 23/19 A3013 RMK A01 T02310188  RH  076%=      5-min Rain = 0
KLO1 111238Z 17008KT 23/19 A3013 RMK A01 T02320188  RH  077%=      5-min Rain = 0
KLO1 111239Z 17009KT 23/19 A3013 RMK A01 T02320188  RH  076%=      5-min Rain = 0
KLO1 111240Z 17009KT 23/19 A3013 RMK A01 T02320188  RH  076%=      5-min Rain = 0
KLO1 111241Z 17009KT 23/19 A3013 RMK A01 T02320188  RH  076%=      5-min Rain = 0
KLO1 111242Z 17008KT 23/19 A3013 RMK A01 T02330188  RH  076%=      5-min Rain = 0
KLO1 111243Z 16008KT 23/19 A3013 RMK A01 T02330188  RH  076%=      5-min Rain = 0
KLO1 111244Z 17008KT 23/19 A3013 RMK A01 T02330189  RH  076%=      5-min Rain = 0
KLO1 111245Z 17010KT 23/19 A3013 RMK A01 T02330189  RH  076%=      5-min Rain = 0
KLO1 111246Z 17010KT 23/19 A3013 RMK A01 T02340188  RH  076%=      5-min Rain = 0
KLO1 111247Z 17011KT 23/19 A3013 RMK A01 T02340188  RH  075%=      5-min Rain = 0
KLO1 111248Z 17009KT 23/19 A3013 RMK A01 T02340188  RH  075%=      5-min Rain = 0
KLO1 111249Z 17009KT 23/19 A3013 RMK A01 T02340189  RH  075%=      5-min Rain = 0
KLO1 111250Z 17010KT 24/19 A3013 RMK A01 T02350189  RH  075%=      5-min Rain = 0
KLO1 111251Z 17009KT 24/19 A3013 RMK A01 T02350189  RH  075%=      5-min Rain = 0
KLO1 111252Z 17009KT 24/19 A3013 RMK A01 T02350188  RH  075%=      5-min Rain = 0
KLO1 111253Z 17009KT 24/19 A3013 RMK A01 T02350188  RH  075%=      5-min Rain = 0
KLO1 111254Z 16007KT 24/19 A3013 RMK A01 T02360189  RH  075%=      5-min Rain = 0
KLO1 111255Z 17008KT 24/19 A3013 RMK A01 T02360190  RH  075%=      5-min Rain = 0
KLO1 111256Z 17009KT 24/19 A3013 RMK A01 T02360188  RH  074%=      5-min Rain = 0
KLO1 111257Z 17009KT 24/19 A3013 RMK A01 T02370189  RH  075%=      5-min Rain = 0
KLO1 111258Z 18008KT 24/19 A3013 RMK A01 T02370189  RH  074%=      5-min Rain = 0
KLO1 111259Z 18008KT 24/19 A3013 RMK A01 T02370189  RH  074%=      5-min Rain = 0
KLO1 111300Z 17009KT 24/19 A3013 RMK A01 T02370189  RH  074%=      5-min Rain = 0
KLO1 111301Z 18009KT 24/19 A3013 RMK A01 T02380189  RH  074%=      5-min Rain = 0
KLO1 111302Z 17007KT 24/19 A3014 RMK A01 T02380189  RH  074%=      5-min Rain = 0
KLO1 111303Z 18009KT 24/19 A3014 RMK A01 T02390190  RH  074%=      5-min Rain = 0
KLO1 111304Z 17012KT 24/19 A3014 RMK A01 T02390189  RH  074%=      5-min Rain = 0
KLO1 111305Z 17010KT 24/19 A3014 RMK A01 T02390189  RH  074%=      5-min Rain = 0
KLO1 111306Z 17010KT 24/19 A3014 RMK A01 T02390189  RH  074%=      5-min Rain = 0
KLO1 111307Z 17010KT 24/19 A3014 RMK A01 T02400189  RH  073%=      5-min Rain = 0
KLO1 111308Z 17010KT 24/19 A3014 RMK A01 T02400189  RH  073%=      5-min Rain = 0
KLO1 111309Z 17011KT 24/19 A3014 RMK A01 T02400189  RH  073%=      5-min Rain = 0
KLO1 111310Z 17011KT 24/19 A3014 RMK A01 T02400189  RH  073%=      5-min Rain = 0
KLO1 111311Z 17009KT 24/19 A3014 RMK A01 T02400190  RH  073%=      5-min Rain = 0
KLO1 111312Z 17010KT 24/19 A3014 RMK A01 T02410190  RH  073%=      5-min Rain = 0
KLO1 111313Z 17010KT 24/19 A3014 RMK A01 T02420190  RH  073%=      5-min Rain = 0
KLO1 111314Z 17009KT 24/19 A3014 RMK A01 T02420190  RH  073%=      5-min Rain = 0
KLO1 111315Z 18011KT 24/19 A3014 RMK A01 T02420190  RH  072%=      5-min Rain = 0
KLO1 111316Z 18008KT 24/19 A3014 RMK A01 T02420190  RH  073%=      5-min Rain = 0
KLO1 111317Z 17010KT 24/19 A3014 RMK A01 T02430191  RH  073%=      5-min Rain = 0
KLO1 111318Z 18011KT 24/19 A3014 RMK A01 T02440190  RH  072%=      5-min Rain = 0
KLO1 111319Z 18010KT 24/19 A3014 RMK A01 T02440190  RH  072%=      5-min Rain = 0
KLO1 111320Z 18009KT 24/19 A3014 RMK A01 T02440191  RH  072%=      5-min Rain = 0
KLO1 111321Z 18011KT 25/19 A3014 RMK A01 T02450191  RH  072%=      5-min Rain = 0
KLO1 111322Z 17011KT 25/19 A3014 RMK A01 T02450190  RH  072%=      5-min Rain = 0
KLO1 111323Z 18010KT 25/19 A3014 RMK A01 T02450190  RH  072%=      5-min Rain = 0
KLO1 111324Z 18011KT 25/19 A3014 RMK A01 T02450190  RH  071%=      5-min Rain = 0
KLO1 111325Z 17010KT 25/19 A3014 RMK A01 T02450190  RH  071%=      5-min Rain = 0
KLO1 111326Z 17012KT 25/19 A3014 RMK A01 T02450190  RH  071%=      5-min Rain = 0
KLO1 111327Z 17011KT 25/19 A3014 RMK A01 T02450190  RH  071%=      5-min Rain = 0
KLO1 111328Z 17012KT 25/19 A3014 RMK A01 T02460191  RH  071%=      5-min Rain = 0
KLO1 111329Z 18011KT 25/19 A3014 RMK A01 T02460190  RH  071%=      5-min Rain = 0
KLO1 111330Z 18011KT 25/19 A3014 RMK A01 T02460189  RH  071%=      5-min Rain = 0
KLO1 111331Z 17011KT 25/19 A3014 RMK A01 T02460189  RH  071%=      5-min Rain = 0
KLO1 111332Z 18011KT 25/19 A3014 RMK A01 T02460190  RH  071%=      5-min Rain = 0
KLO1 111333Z 17011KT 25/19 A3014 RMK A01 T02470190  RH  071%=      5-min Rain = 0
KLO1 111334Z 17010KT 25/19 A3014 RMK A01 T02470190  RH  071%=      5-min Rain = 0
KLO1 111335Z 17011KT 25/19 A3014 RMK A01 T02480190  RH  070%=      5-min Rain = 0
KLO1 111336Z 18010KT 25/19 A3014 RMK A01 T02480190  RH  070%=      5-min Rain = 0
KLO1 111337Z 17011KT 25/19 A3014 RMK A01 T02480190  RH  070%=      5-min Rain = 0
KLO1 111338Z 18011KT 25/19 A3014 RMK A01 T02480190  RH  070%=      5-min Rain = 0
KLO1 111339Z 18011KT 25/19 A3014 RMK A01 T02490190  RH  070%=      5-min Rain = 0
KLO1 111340Z 18012KT 25/19 A3014 RMK A01 T02500190  RH  070%=      5-min Rain = 0
KLO1 111341Z 18012KT 25/19 A3014 RMK A01 T02500189  RH  069%=      5-min Rain = 0
KLO1 111342Z 18012KT 25/19 A3014 RMK A01 T02500189  RH  069%=      5-min Rain = 0
KLO1 111343Z 18012KT 25/19 A3014 RMK A01 T02500189  RH  069%=      5-min Rain = 0
KLO1 111344Z 18011KT 25/19 A3014 RMK A01 T02500189  RH  069%=      5-min Rain = 0
KLO1 111345Z 18011KT 25/19 A3014 RMK A01 T02510190  RH  069%=      5-min Rain = 0
KLO1 111346Z 18013KT 25/19 A3014 RMK A01 T02520189  RH  068%=      5-min Rain = 0
KLO1 111347Z 18012KT 25/19 A3014 RMK A01 T02520189  RH  068%=      5-min Rain = 0
KLO1 111348Z 18012KT 25/19 A3014 RMK A01 T02520190  RH  068%=      5-min Rain = 0
KLO1 111349Z 18011KT 25/19 A3014 RMK A01 T02520189  RH  068%=      5-min Rain = 0
KLO1 111350Z 18011KT 25/19 A3014 RMK A01 T02530189  RH  068%=      5-min Rain = 0
KLO1 111351Z 18010KT 25/19 A3014 RMK A01 T02530190  RH  068%=      5-min Rain = 0
KLO1 111352Z 18011KT 25/19 A3014 RMK A01 T02530189  RH  067%=      5-min Rain = 0
KLO1 111353Z 18011KT 25/19 A3015 RMK A01 T02540189  RH  067%=      5-min Rain = 0
KLO1 111354Z 17009KT 25/19 A3015 RMK A01 T02530189  RH  067%=      5-min Rain = 0
KLO1 111355Z 18008KT 25/19 A3015 RMK A01 T02540191  RH  068%=      5-min Rain = 0
KLO1 111356Z 18011KT 26/19 A3015 RMK A01 T02550190  RH  067%=      5-min Rain = 0
KLO1 111357Z 18010KT 26/19 A3015 RMK A01 T02550189  RH  067%=      5-min Rain = 0
KLO1 111358Z 17010KT 26/19 A3015 RMK A01 T02550190  RH  067%=      5-min Rain = 0
KLO1 111359Z 18010KT 26/19 A3015 RMK A01 T02560190  RH  067%=      5-min Rain = 0
KLO1 111400Z 18010KT 26/19 A3015 RMK A01 T02560190  RH  067%=      5-min Rain = 0
KLO1 111401Z 19010KT 26/19 A3015 RMK A01 T02560189  RH  067%=      5-min Rain = 0
KLO1 111402Z 19011KT 26/19 A3015 RMK A01 T02560189  RH  066%=      5-min Rain = 0
KLO1 111403Z 18009KT 26/19 A3015 RMK A01 T02570190  RH  066%=      5-min Rain = 0
KLO1 111404Z 19010KT 26/19 A3015 RMK A01 T02590191  RH  066%=      5-min Rain = 0
KLO1 111405Z 19012KT 26/19 A3015 RMK A01 T02590189  RH  065%=      5-min Rain = 0
KLO1 111406Z 18012KT 26/19 A3015 RMK A01 T02590189  RH  065%=      5-min Rain = 0
KLO1 111407Z 19013KT 26/19 A3015 RMK A01 T02590189  RH  065%=      5-min Rain = 0
KLO1 111408Z 19012KT 26/19 A3015 RMK A01 T02600188  RH  065%=      5-min Rain = 0
KLO1 111409Z 19011KT 26/19 A3015 RMK A01 T02600189  RH  065%=      5-min Rain = 0
KLO1 111410Z 19013KT 26/19 A3015 RMK A01 T02600188  RH  064%=      5-min Rain = 0
KLO1 111411Z 18012KT 26/19 A3015 RMK A01 T02600189  RH  065%=      5-min Rain = 0
KLO1 111412Z 18012KT 26/19 A3015 RMK A01 T02610188  RH  064%=      5-min Rain = 0
KLO1 111413Z 19013KT 26/19 A3015 RMK A01 T02620188  RH  064%=      5-min Rain = 0
KLO1 111414Z 19014KT 26/19 A3015 RMK A01 T02620186  RH  063%=      5-min Rain = 0
KLO1 111415Z 19014KT 26/19 A3015 RMK A01 T02620186  RH  063%=      5-min Rain = 0
KLO1 111416Z 19013KT 26/19 A3015 RMK A01 T02620186  RH  063%=      5-min Rain = 0
KLO1 111417Z 18012KT 26/19 A3015 RMK A01 T02620188  RH  064%=      5-min Rain = 0
KLO1 111418Z 19014KT 26/19 A3015 RMK A01 T02630187  RH  063%=      5-min Rain = 0
KLO1 111419Z 20012KT 26/19 A3015 RMK A01 T02630186  RH  063%=      5-min Rain = 0
KLO1 111420Z 18012KT 26/19 A3015 RMK A01 T02620187  RH  063%=      5-min Rain = 0
KLO1 111421Z 18013KT 26/19 A3015 RMK A01 T02630186  RH  062%=      5-min Rain = 0
KLO1 111422Z 19014KT 26/19 A3015 RMK A01 T02630186  RH  063%=      5-min Rain = 0
KLO1 111423Z 18013KT 26/19 A3015 RMK A01 T02630187  RH  063%=      5-min Rain = 0
KLO1 111424Z 18012KT 26/19 A3015 RMK A01 T02630186  RH  063%=      5-min Rain = 0
KLO1 111425Z 18011KT 26/19 A3015 RMK A01 T02630186  RH  062%=      5-min Rain = 0
KLO1 111426Z 18012KT 26/19 A3015 RMK A01 T02630187  RH  063%=      5-min Rain = 0
KLO1 111427Z 18013KT 26/19 A3015 RMK A01 T02640186  RH  062%=      5-min Rain = 0
KLO1 111428Z 19012KT 26/19 A3015 RMK A01 T02640186  RH  062%=      5-min Rain = 0
KLO1 111429Z 18012KT 27/19 A3015 RMK A01 T02650186  RH  062%=      5-min Rain = 0
KLO1 111430Z 18014KT 27/19 A3015 RMK A01 T02650185  RH  062%=      5-min Rain = 0
KLO1 111431Z 18012KT 27/18 A3015 RMK A01 T02650184  RH  061%=      5-min Rain = 0
KLO1 111432Z 18011KT 26/19 A3015 RMK A01 T02640186  RH  062%=      5-min Rain = 0
KLO1 111433Z 18013KT 27/19 A3015 RMK A01 T02650185  RH  062%=      5-min Rain = 0
KLO1 111434Z 19012KT 27/19 A3015 RMK A01 T02660186  RH  061%=      5-min Rain = 0
KLO1 111435Z 19013KT 27/19 A3015 RMK A01 T02670186  RH  061%=      5-min Rain = 0
KLO1 111436Z 19014KT 27/18 A3015 RMK A01 T02680184  RH  060%=      5-min Rain = 0
KLO1 111437Z 19014KT 27/18 A3015 RMK A01 T02680184  RH  060%=      5-min Rain = 0
KLO1 111438Z 18012KT 27/19 A3015 RMK A01 T02680185  RH  060%=      5-min Rain = 0
KLO1 111439Z 18013KT 27/19 A3015 RMK A01 T02670185  RH  061%=      5-min Rain = 0
KLO1 111440Z 18013KT 27/18 A3015 RMK A01 T02680184  RH  060%=      5-min Rain = 0
KLO1 111441Z 18011KT 27/19 A3015 RMK A01 T02680185  RH  060%=      5-min Rain = 0
KLO1 111442Z 18012KT 27/19 A3015 RMK A01 T02700185  RH  060%=      5-min Rain = 0
KLO1 111443Z 19012KT 27/19 A3015 RMK A01 T02700185  RH  060%=      5-min Rain = 0
KLO1 111444Z 19013KT 27/18 A3015 RMK A01 T02700184  RH  059%=      5-min Rain = 0
KLO1 111445Z 18013KT 27/19 A3015 RMK A01 T02720185  RH  059%=      5-min Rain = 0
KLO1 111446Z 17012KT 27/18 A3015 RMK A01 T02720184  RH  059%=      5-min Rain = 0
KLO1 111447Z 18014KT 27/18 A3015 RMK A01 T02710184  RH  059%=      5-min Rain = 0
KLO1 111448Z 17014KT 27/18 A3014 RMK A01 T02720183  RH  058%=      5-min Rain = 0
KLO1 111449Z 17014KT 27/18 A3015 RMK A01 T02720184  RH  058%=      5-min Rain = 0
KLO1 111450Z 17014KT 27/18 A3014 RMK A01 T02730183  RH  058%=      5-min Rain = 0
KLO1 111451Z 18013KT 27/18 A3015 RMK A01 T02730184  RH  058%=      5-min Rain = 0
KLO1 111452Z 18012KT 27/18 A3015 RMK A01 T02730184  RH  059%=      5-min Rain = 0
KLO1 111453Z 19012KT 27/19 A3015 RMK A01 T02740185  RH  058%=      5-min Rain = 0
KLO1 111454Z 19011KT 28/19 A3015 RMK A01 T02750185  RH  058%=      5-min Rain = 0
KLO1 111455Z 19011KT 28/19 A3015 RMK A01 T02770186  RH  058%=      5-min Rain = 0
KLO1 111456Z 18010KT 28/19 A3015 RMK A01 T02790186  RH  057%=      5-min Rain = 0
KLO1 111457Z 18011KT 28/19 A3015 RMK A01 T02790187  RH  057%=      5-min Rain = 0
KLO1 111458Z 18010KT 28/19 A3015 RMK A01 T02790186  RH  057%=      5-min Rain = 0
KLO1 111459Z 18012KT 28/19 A3014 RMK A01 T02790186  RH  057%=      5-min Rain = 0
KLO1 111500Z 18012KT 28/18 A3014 RMK A01 T02780184  RH  057%=      5-min Rain = 0
KLO1 111501Z 18011KT 28/19 A3014 RMK A01 T02790185  RH  057%=      5-min Rain = 0
KLO1 111502Z 18011KT 28/19 A3014 RMK A01 T02790185  RH  057%=      5-min Rain = 0
KLO1 111503Z 18010KT 28/19 A3014 RMK A01 T02800185  RH  056%=      5-min Rain = 0
KLO1 111504Z 18013KT 28/19 A3014 RMK A01 T02800185  RH  056%=      5-min Rain = 0
KLO1 111505Z 18010KT 28/18 A3015 RMK A01 T02810183  RH  055%=      5-min Rain = 0
KLO1 111506Z 17013KT 28/18 A3014 RMK A01 T02810183  RH  055%=      5-min Rain = 0
KLO1 111507Z 18013KT 28/18 A3014 RMK A01 T02810183  RH  055%=      5-min Rain = 0
KLO1 111508Z 17012KT 28/18 A3014 RMK A01 T02790183  RH  056%=      5-min Rain = 0
KLO1 111509Z 18012KT 28/18 A3014 RMK A01 T02790182  RH  056%=      5-min Rain = 0
KLO1 111510Z 19012KT 28/19 A3015 RMK A01 T02810185  RH  056%=      5-min Rain = 0
KLO1 111511Z 19013KT 28/18 A3014 RMK A01 T02830184  RH  055%=      5-min Rain = 0
KLO1 111512Z 18014KT 28/18 A3014 RMK A01 T02830184  RH  055%=      5-min Rain = 0
KLO1 111513Z 19012KT 28/18 A3014 RMK A01 T02830182  RH  054%=      5-min Rain = 0
KLO1 111514Z 19014KT 28/18 A3014 RMK A01 T02830181  RH  054%=      5-min Rain = 0
KLO1 111515Z 18013KT 28/18 A3014 RMK A01 T02830181  RH  054%=      5-min Rain = 0
KLO1 111516Z 18013KT 28/18 A3014 RMK A01 T02830181  RH  054%=      5-min Rain = 0
KLO1 111517Z 20013KT 28/18 A3014 RMK A01 T02810180  RH  054%=      5-min Rain = 0
KLO1 111518Z 19014KT 28/18 A3014 RMK A01 T02810180  RH  054%=      5-min Rain = 0
KLO1 111519Z 19012KT 28/18 A3014 RMK A01 T02810180  RH  054%=      5-min Rain = 0
KLO1 111520Z 19012KT 28/18 A3014 RMK A01 T02840181  RH  054%=      5-min Rain = 0
KLO1 111521Z 19014KT 29/18 A3014 RMK A01 T02860180  RH  053%=      5-min Rain = 0
KLO1 111522Z 19013KT 29/18 A3014 RMK A01 T02870181  RH  053%=      5-min Rain = 0
KLO1 111523Z 19015KT 29/18 A3014 RMK A01 T02890180  RH  052%=      5-min Rain = 0
KLO1 111524Z 19014KT 29/18 A3014 RMK A01 T02880179  RH  052%=      5-min Rain = 0
KLO1 111525Z 20012KT 29/18 A3014 RMK A01 T02880180  RH  052%=      5-min Rain = 0
KLO1 111526Z 20011KT 29/18 A3014 RMK A01 T02870181  RH  053%=      5-min Rain = 0
KLO1 111527Z 19014KT 29/18 A3014 RMK A01 T02870180  RH  052%=      5-min Rain = 0
KLO1 111528Z 18015KT 29/18 A3014 RMK A01 T02870180  RH  052%=      5-min Rain = 0
KLO1 111529Z 19013KT 29/18 A3014 RMK A01 T02880179  RH  052%=      5-min Rain = 0
KLO1 111530Z 19012KT 29/18 A3014 RMK A01 T02900182  RH  052%=      5-min Rain = 0
KLO1 111531Z 19012KT 29/18 A3014 RMK A01 T02920180  RH  051%=      5-min Rain = 0
KLO1 111532Z 19014KT 29/18 A3014 RMK A01 T02920179  RH  051%=      5-min Rain = 0
KLO1 111533Z 18014KT 29/18 A3014 RMK A01 T02910179  RH  051%=      5-min Rain = 0
KLO1 111534Z 19012KT 29/18 A3014 RMK A01 T02900177  RH  051%=      5-min Rain = 0
KLO1 111535Z 19013KT 29/18 A3014 RMK A01 T02890177  RH  051%=      5-min Rain = 0
KLO1 111536Z 19012KT 29/18 A3014 RMK A01 T02890179  RH  051%=      5-min Rain = 0
KLO1 111537Z 19013KT 29/18 A3014 RMK A01 T02890179  RH  051%=      5-min Rain = 0
KLO1 111538Z 18013KT 29/18 A3014 RMK A01 T02890180  RH  052%=      5-min Rain = 0
KLO1 111539Z 18014KT 29/18 A3014 RMK A01 T02910179  RH  051%=      5-min Rain = 0
KLO1 111540Z 18013KT 29/18 A3014 RMK A01 T02890178  RH  051%=      5-min Rain = 0
KLO1 111541Z 18015KT 29/18 A3014 RMK A01 T02890178  RH  051%=      5-min Rain = 0
KLO1 111542Z 18014KT 29/18 A3014 RMK A01 T02900178  RH  051%=      5-min Rain = 0
KLO1 111543Z 18014KT 29/18 A3014 RMK A01 T02900176  RH  050%=      5-min Rain = 0
KLO1 111544Z 20013KT 29/18 A3014 RMK A01 T02890176  RH  050%=      5-min Rain = 0
KLO1 111545Z 19012KT 29/18 A3014 RMK A01 T02910176  RH  050%=      5-min Rain = 0
KLO1 111546Z 20011KT 29/18 A3014 RMK A01 T02900177  RH  051%=      5-min Rain = 0
KLO1 111547Z 19011KT 29/18 A3014 RMK A01 T02930179  RH  050%=      5-min Rain = 0
KLO1 111548Z 20015KT 29/18 A3014 RMK A01 T02940177  RH  050%=      5-min Rain = 0
KLO1 111549Z 19013KT 29/18 A3014 RMK A01 T02930176  RH  049%=      5-min Rain = 0
KLO1 111550Z 19011KT 29/18 A3014 RMK A01 T02910177  RH  050%=      5-min Rain = 0
KLO1 111551Z 20013KT 29/18 A3014 RMK A01 T02910176  RH  050%=      5-min Rain = 0
KLO1 111552Z 19011KT 29/18 A3014 RMK A01 T02910177  RH  050%=      5-min Rain = 0
KLO1 111553Z 19012KT 29/18 A3014 RMK A01 T02920178  RH  050%=      5-min Rain = 0
KLO1 111554Z 19013KT 29/18 A3014 RMK A01 T02930176  RH  049%=      5-min Rain = 0
KLO1 111555Z 20012KT 29/18 A3014 RMK A01 T02920176  RH  049%=      5-min Rain = 0
KLO1 111556Z 17013KT 29/18 A3014 RMK A01 T02940177  RH  049%=      5-min Rain = 0
KLO1 111557Z 18012KT 30/18 A3014 RMK A01 T02950177  RH  049%=      5-min Rain = 0
KLO1 111558Z 19014KT 30/18 A3014 RMK A01 T02960175  RH  048%=      5-min Rain = 0
KLO1 111559Z 18011KT 30/18 A3014 RMK A01 T02960177  RH  049%=      5-min Rain = 0
KLO1 111600Z 19015KT 30/18 A3014 RMK A01 T03000177  RH  048%=      5-min Rain = 0
KLO1 111601Z 19013KT 30/18 A3014 RMK A01 T02990175  RH  047%=      5-min Rain = 0
KLO1 111602Z 19014KT 30/17 A3014 RMK A01 T02960174  RH  048%=      5-min Rain = 0
KLO1 111603Z 18013KT 30/17 A3014 RMK A01 T02960174  RH  048%=      5-min Rain = 0
KLO1 111604Z 17012KT 30/17 A3014 RMK A01 T02960173  RH  047%=      5-min Rain = 0
KLO1 111605Z 17010KT 30/17 A3014 RMK A01 T02960173  RH  048%=      5-min Rain = 0
KLO1 111606Z 18011G16KT 30/17 A3014 RMK A01 T02960174  RH  048%=      5-min Rain = 0
KLO1 111607Z 19014KT 30/17 A3013 RMK A01 T02970174  RH  047%=      5-min Rain = 0
KLO1 111608Z 20010KT 30/17 A3013 RMK A01 T02980173  RH  047%=      5-min Rain = 0
KLO1 111609Z 20012KT 30/17 A3013 RMK A01 T02970174  RH  047%=      5-min Rain = 0
KLO1 111610Z 20013KT 30/17 A3013 RMK A01 T02970174  RH  048%=      5-min Rain = 0
KLO1 111611Z 19015KT 30/17 A3013 RMK A01 T02980174  RH  047%=      5-min Rain = 0
KLO1 111612Z 18014KT 30/18 A3014 RMK A01 T02990175  RH  047%=      5-min Rain = 0
KLO1 111613Z 18013KT 30/17 A3014 RMK A01 T03000174  RH  047%=      5-min Rain = 0
KLO1 111614Z 17012KT 30/18 A3014 RMK A01 T03000175  RH  047%=      5-min Rain = 0
KLO1 111615Z 19011KT 30/18 A3014 RMK A01 T03010176  RH  047%=      5-min Rain = 0
KLO1 111616Z 19012KT 30/17 A3014 RMK A01 T03030174  RH  046%=      5-min Rain = 0
KLO1 111617Z 19008KT 30/17 A3014 RMK A01 T03010173  RH  046%=      5-min Rain = 0
KLO1 111618Z 20012KT 30/17 A3014 RMK A01 T03000173  RH  047%=      5-min Rain = 0
KLO1 111619Z 20009KT 30/17 A3014 RMK A01 T02990173  RH  047%=      5-min Rain = 0
KLO1 111620Z 19011KT 30/17 A3014 RMK A01 T02990174  RH  047%=      5-min Rain = 0
KLO1 111621Z 20011KT 30/18 A3014 RMK A01 T03010175  RH  047%=      5-min Rain = 0
KLO1 111622Z 17013KT 31/18 A3014 RMK A01 T03060177  RH  046%=      5-min Rain = 0
KLO1 111623Z 18010KT 31/17 A3014 RMK A01 T03080174  RH  045%=      5-min Rain = 0
KLO1 111624Z 17010KT 31/17 A3014 RMK A01 T03080174  RH  045%=      5-min Rain = 0
KLO1 111625Z 19012KT 31/17 A3014 RMK A01 T03060174  RH  045%=      5-min Rain = 0
KLO1 111626Z 20013KT 31/17 A3014 RMK A01 T03060174  RH  045%=      5-min Rain = 0
KLO1 111627Z 20012KT 31/17 A3014 RMK A01 T03060173  RH  045%=      5-min Rain = 0
KLO1 111628Z 19013KT 30/17 A3014 RMK A01 T03030173  RH  046%=      5-min Rain = 0
KLO1 111629Z 19013KT 30/17 A3014 RMK A01 T03030172  RH  046%=      5-min Rain = 0
KLO1 111630Z 20012KT 30/17 A3014 RMK A01 T03020172  RH  046%=      5-min Rain = 0
KLO1 111631Z 20010KT 30/17 A3014 RMK A01 T03030171  RH  045%=      5-min Rain = 0
KLO1 111632Z 20014KT 30/17 A3013 RMK A01 T03040172  RH  045%=      5-min Rain = 0
KLO1 111633Z 19013KT 31/17 A3013 RMK A01 T03050171  RH  045%=      5-min Rain = 0
KLO1 111634Z 18011KT 31/17 A3014 RMK A01 T03050172  RH  045%=      5-min Rain = 0
KLO1 111635Z 19011KT 31/17 A3013 RMK A01 T03060173  RH  045%=      5-min Rain = 0
KLO1 111636Z 17012KT 31/17 A3013 RMK A01 T03080174  RH  045%=      5-min Rain = 0
KLO1 111637Z 18012KT 31/18 A3013 RMK A01 T03080175  RH  045%=      5-min Rain = 0
KLO1 111638Z 19012KT 31/17 A3013 RMK A01 T03090174  RH  044%=      5-min Rain = 0
KLO1 111639Z 20014KT 31/17 A3013 RMK A01 T03110174  RH  044%=      5-min Rain = 0
KLO1 111640Z 20013KT 31/17 A3013 RMK A01 T03120172  RH  043%=      5-min Rain = 0
KLO1 111641Z 19012KT 31/17 A3013 RMK A01 T03100173  RH  044%=      5-min Rain = 0
KLO1 111642Z 18011KT 31/17 A3013 RMK A01 T03100174  RH  044%=      5-min Rain = 0
KLO1 111643Z 19012G17KT 31/17 A3013 RMK A01 T03140174  RH  043%=      5-min Rain = 0
KLO1 111644Z 20014KT 32/17 A3013 RMK A01 T03150173  RH  043%=      5-min Rain = 0
KLO1 111645Z 18012KT 31/17 A3014 RMK A01 T03120172  RH  043%=      5-min Rain = 0
KLO1 111646Z 17013KT 31/17 A3014 RMK A01 T03100171  RH  043%=      5-min Rain = 0
KLO1 111647Z 16010KT 31/17 A3013 RMK A01 T03100169  RH  043%=      5-min Rain = 0
KLO1 111648Z 17013KT 31/17 A3013 RMK A01 T03100171  RH  043%=      5-min Rain = 0
KLO1 111649Z 17011KT 31/17 A3013 RMK A01 T03110171  RH  043%=      5-min Rain = 0
KLO1 111650Z 18015KT 31/17 A3013 RMK A01 T03120170  RH  042%=      5-min Rain = 0
KLO1 111651Z 18014KT 31/17 A3013 RMK A01 T03130168  RH  042%=      5-min Rain = 0
KLO1 111652Z 18012KT 31/17 A3013 RMK A01 T03120167  RH  042%=      5-min Rain = 0
KLO1 111653Z 17014KT 31/17 A3013 RMK A01 T03120167  RH  042%=      5-min Rain = 0
KLO1 111654Z 17011KT 31/17 A3013 RMK A01 T03140167  RH  041%=      5-min Rain = 0
KLO1 111655Z 17011KT 31/17 A3013 RMK A01 T03120167  RH  042%=      5-min Rain = 0
KLO1 111656Z 16014G19KT 31/17 A3013 RMK A01 T03120168  RH  042%=      5-min Rain = 0
KLO1 111657Z 16013KT 31/17 A3013 RMK A01 T03120166  RH  041%=      5-min Rain = 0
KLO1 111658Z 18010KT 31/17 A3013 RMK A01 T03130169  RH  042%=      5-min Rain = 0
KLO1 111659Z 16015KT 31/17 A3013 RMK A01 T03140169  RH  042%=      5-min Rain = 0
KLO1 111700Z 16017KT 32/17 A3013 RMK A01 T03160165  RH  040%=      5-min Rain = 0
KLO1 111701Z 17015KT 32/17 A3013 RMK A01 T03150168  RH  041%=      5-min Rain = 0
KLO1 111702Z 17013KT 32/17 A3013 RMK A01 T03150171  RH  042%=      5-min Rain = 0
KLO1 111703Z 17011KT 32/17 A3013 RMK A01 T03150171  RH  042%=      5-min Rain = 0
KLO1 111704Z 16009KT 32/17 A3013 RMK A01 T03150169  RH  041%=      5-min Rain = 0
KLO1 111705Z 17009KT 31/17 A3013 RMK A01 T03130170  RH  042%=      5-min Rain = 0
KLO1 111706Z 16013KT 31/17 A3013 RMK A01 T03130170  RH  042%=      5-min Rain = 0
KLO1 111707Z 16014KT 32/17 A3013 RMK A01 T03150169  RH  042%=      5-min Rain = 0
KLO1 111708Z 16013KT 32/17 A3013 RMK A01 T03160168  RH  041%=      5-min Rain = 0
KLO1 111709Z 17013KT 32/17 A3013 RMK A01 T03160167  RH  041%=      5-min Rain = 0
KLO1 111710Z 17014KT 32/17 A3013 RMK A01 T03190167  RH  040%=      5-min Rain = 0
KLO1 111711Z 16014KT 32/17 A3013 RMK A01 T03200167  RH  040%=      5-min Rain = 0
KLO1 111712Z 18011KT 32/17 A3013 RMK A01 T03190167  RH  040%=      5-min Rain = 0
KLO1 111713Z 16013KT 32/17 A3013 RMK A01 T03180165  RH  040%=      5-min Rain = 0
KLO1 111714Z 17012KT 32/16 A3013 RMK A01 T03180162  RH  039%=      5-min Rain = 0
KLO1 111715Z 18014KT 32/17 A3013 RMK A01 T03220165  RH  039%=      5-min Rain = 0
KLO1 111716Z 17012KT 32/16 A3013 RMK A01 T03220163  RH  038%=      5-min Rain = 0
KLO1 111717Z 19014KT 32/17 A3013 RMK A01 T03200165  RH  039%=      5-min Rain = 0
KLO1 111718Z 19011KT 32/17 A3013 RMK A01 T03210166  RH  040%=      5-min Rain = 0
KLO1 111719Z 18008KT 32/17 A3013 RMK A01 T03170165  RH  040%=      5-min Rain = 0
KLO1 111720Z 15013KT 32/17 A3013 RMK A01 T03150166  RH  041%=      5-min Rain = 0
KLO1 111721Z 16015KT 32/16 A3013 RMK A01 T03210163  RH  039%=      5-min Rain = 0
KLO1 111722Z 16013KT 32/16 A3013 RMK A01 T03210163  RH  039%=      5-min Rain = 0
KLO1 111723Z 15013KT 32/17 A3013 RMK A01 T03210166  RH  040%=      5-min Rain = 0
KLO1 111724Z 15012KT 32/17 A3013 RMK A01 T03200168  RH  040%=      5-min Rain = 0
KLO1 111725Z 15011KT 32/17 A3013 RMK A01 T03230167  RH  039%=      5-min Rain = 0
KLO1 111726Z 15012KT 32/17 A3013 RMK A01 T03240166  RH  039%=      5-min Rain = 0
KLO1 111727Z 17013KT 33/16 A3013 RMK A01 T03250163  RH  038%=      5-min Rain = 0
KLO1 111728Z 16014KT 32/16 A3013 RMK A01 T03240161  RH  038%=      5-min Rain = 0
KLO1 111729Z 15013KT 32/16 A3013 RMK A01 T03210159  RH  038%=      5-min Rain = 0
KLO1 111730Z 16015KT 32/16 A3013 RMK A01 T03220162  RH  038%=      5-min Rain = 0
KLO1 111731Z 16015KT 32/16 A3013 RMK A01 T03220164  RH  039%=      5-min Rain = 0
KLO1 111732Z 17013KT 32/16 A3013 RMK A01 T03210163  RH  039%=      5-min Rain = 0
KLO1 111733Z 16012KT 32/16 A3013 RMK A01 T03190163  RH  039%=      5-min Rain = 0
KLO1 111734Z 17016KT 32/16 A3013 RMK A01 T03170162  RH  039%=      5-min Rain = 0
KLO1 111735Z 16013KT 32/16 A3013 RMK A01 T03160159  RH  039%=      5-min Rain = 0
KLO1 111736Z 16012KT 32/16 A3013 RMK A01 T03160156  RH  038%=      5-min Rain = 0
KLO1 111737Z 17012KT 32/16 A3013 RMK A01 T03180161  RH  039%=      5-min Rain = 0
KLO1 111738Z 19013KT 32/16 A3013 RMK A01 T03190163  RH  039%=      5-min Rain = 0
KLO1 111739Z 19013KT 32/17 A3013 RMK A01 T03210166  RH  039%=      5-min Rain = 0
KLO1 111740Z 18013KT 32/16 A3013 RMK A01 T03230163  RH  038%=      5-min Rain = 0
KLO1 111741Z 16013KT 32/16 A3012 RMK A01 T03210164  RH  039%=      5-min Rain = 0
KLO1 111742Z 15015KT 32/16 A3012 RMK A01 T03230162  RH  038%=      5-min Rain = 0
KLO1 111743Z 15016KT 33/16 A3012 RMK A01 T03250159  RH  037%=      5-min Rain = 0
KLO1 111744Z 15015KT 32/16 A3012 RMK A01 T03240158  RH  037%=      5-min Rain = 0
KLO1 111745Z 14015KT 32/16 A3012 RMK A01 T03220156  RH  037%=      5-min Rain = 0
KLO1 111746Z 15013KT 32/16 A3012 RMK A01 T03230155  RH  036%=      5-min Rain = 0
KLO1 111747Z 18013KT 32/16 A3012 RMK A01 T03230157  RH  037%=      5-min Rain = 0
KLO1 111748Z 18015KT 33/14 A3012 RMK A01 T03250144  RH  033%=      5-min Rain = 0
KLO1 111749Z 17015KT 33/14 A3012 RMK A01 T03260142  RH  033%=      5-min Rain = 0
KLO1 111750Z 18014KT 32/15 A3012 RMK A01 T03240145  RH  034%=      5-min Rain = 0
KLO1 111751Z 18016KT 33/15 A3012 RMK A01 T03250147  RH  034%=      5-min Rain = 0
KLO1 111752Z 17015KT 33/14 A3012 RMK A01 T03260141  RH  033%=      5-min Rain = 0
KLO1 111753Z 16015KT 33/15 A3012 RMK A01 T03280151  RH  034%=      5-min Rain = 0
KLO1 111754Z 18018KT 33/13 A3012 RMK A01 T03280127  RH  030%=      5-min Rain = 0
KLO1 111755Z 17013KT 33/12 A3012 RMK A01 T03290119  RH  028%=      5-min Rain = 0
KLO1 111756Z 16013KT 33/12 A3012 RMK A01 T03270122  RH  029%=      5-min Rain = 0
KLO1 111757Z 16013KT 33/14 A3012 RMK A01 T03250141  RH  033%=      5-min Rain = 0
KLO1 111758Z 18016KT 33/14 A3012 RMK A01 T03260141  RH  033%=      5-min Rain = 0
KLO1 111759Z 18014KT 33/14 A3012 RMK A01 T03300141  RH  032%=      5-min Rain = 0
KLO1 111800Z 19011KT 33/15 A3012 RMK A01 T03300145  RH  033%=      5-min Rain = 0
KLO1 111801Z 18014G20KT 33/15 A3012 RMK A01 T03250147  RH  034%=      5-min Rain = 0
KLO1 111802Z 17015KT 33/15 A3012 RMK A01 T03250153  RH  036%=      5-min Rain = 0
KLO1 111803Z 17016G22KT 33/15 A3012 RMK A01 T03260145  RH  034%=      5-min Rain = 0
KLO1 111804Z 17015KT 33/15 A3012 RMK A01 T03260147  RH  034%=      5-min Rain = 0
KLO1 111805Z 15017KT 33/15 A3011 RMK A01 T03260146  RH  034%=      5-min Rain = 0
KLO1 111806Z 17016KT 33/15 A3011 RMK A01 T03280145  RH  033%=      5-min Rain = 0
KLO1 111807Z 18013KT 33/15 A3011 RMK A01 T03310145  RH  033%=      5-min Rain = 0
KLO1 111808Z 17014KT 33/14 A3011 RMK A01 T03290139  RH  032%=      5-min Rain = 0
KLO1 111809Z 16018KT 33/14 A3011 RMK A01 T03280140  RH  032%=      5-min Rain = 0
KLO1 111810Z 17016KT 33/15 A3011 RMK A01 T03300151  RH  034%=      5-min Rain = 0
KLO1 111811Z 15015KT 33/15 A3011 RMK A01 T03300153  RH  035%=      5-min Rain = 0
KLO1 111812Z 17015KT 33/15 A3011 RMK A01 T03290153  RH  035%=      5-min Rain = 0
KLO1 111813Z 16015KT 33/15 A3011 RMK A01 T03280151  RH  035%=      5-min Rain = 0
KLO1 111814Z 16011KT 33/15 A3011 RMK A01 T03260148  RH  034%=      5-min Rain = 0
KLO1 111815Z 17011KT 33/15 A3011 RMK A01 T03250151  RH  035%=      5-min Rain = 0
KLO1 111816Z 17013KT 33/15 A3011 RMK A01 T03270151  RH  035%=      5-min Rain = 0
KLO1 111817Z 18016KT 33/14 A3011 RMK A01 T03280143  RH  033%=      5-min Rain = 0
KLO1 111818Z 19014KT 33/14 A3011 RMK A01 T03290138  RH  032%=      5-min Rain = 0
KLO1 111819Z 18013KT 33/15 A3011 RMK A01 T03290145  RH  033%=      5-min Rain = 0
KLO1 111820Z 16014KT 33/15 A3011 RMK A01 T03280148  RH  034%=      5-min Rain = 0
KLO1 111821Z 16014KT 33/15 A3011 RMK A01 T03290148  RH  034%=      5-min Rain = 0
KLO1 111822Z 16015G20KT 33/15 A3011 RMK A01 T03320145  RH  032%=      5-min Rain = 0
KLO1 111823Z 16016KT 33/14 A3011 RMK A01 T03310144  RH  032%=      5-min Rain = 0
KLO1 111824Z 16016KT 33/14 A3011 RMK A01 T03270142  RH  033%=      5-min Rain = 0
KLO1 111825Z 16018KT 33/15 A3011 RMK A01 T03270145  RH  033%=      5-min Rain = 0
KLO1 111826Z 15013KT 33/15 A3011 RMK A01 T03270146  RH  033%=      5-min Rain = 0
KLO1 111827Z 14014KT 33/15 A3011 RMK A01 T03270145  RH  033%=      5-min Rain = 0
KLO1 111828Z 15015KT 33/14 A3011 RMK A01 T03270144  RH  033%=      5-min Rain = 0
KLO1 111829Z 17015KT 33/15 A3011 RMK A01 T03290149  RH  034%=      5-min Rain = 0
KLO1 111830Z 18011KT 33/15 A3011 RMK A01 T03280150  RH  034%=      5-min Rain = 0
KLO1 111831Z 18010KT 33/15 A301 RMK A01 T03260152  RH  035%=      5-min Rain = 0
KLO1 111832Z 15016KT 33/15 A301 RMK A01 T03260147  RH  034%=      5-min Rain = 0
KLO1 111833Z 15013KT 33/15 A301 RMK A01 T03280146  RH  033%=      5-min Rain = 0
KLO1 111834Z 15014KT 33/15 A301 RMK A01 T03290147  RH  033%=      5-min Rain = 0
KLO1 111835Z 16012KT 33/15 A301 RMK A01 T03280145  RH  033%=      5-min Rain = 0
KLO1 111836Z 17013KT 33/15 A301 RMK A01 T03260146  RH  034%=      5-min Rain = 0
KLO1 111837Z 19015KT 33/15 A301 RMK A01 T03260148  RH  034%=      5-min Rain = 0
KLO1 111838Z 19016KT 33/15 A301 RMK A01 T03280146  RH  033%=      5-min Rain = 0
KLO1 111839Z 17016KT 33/15 A301 RMK A01 T03300146  RH  033%=      5-min Rain = 0
KLO1 111840Z 17015KT 33/15 A301 RMK A01 T03290145  RH  033%=      5-min Rain = 0
KLO1 111841Z 16010KT 33/14 A301 RMK A01 T03280144  RH  033%=      5-min Rain = 0
KLO1 111842Z 16010G15KT 33/15 A301 RMK A01 T03270145  RH  033%=      5-min Rain = 0
KLO1 111843Z 16013KT 33/15 A301 RMK A01 T03260148  RH  034%=      5-min Rain = 0
KLO1 111844Z 18013KT 33/15 A301 RMK A01 T03310152  RH  034%=      5-min Rain = 0
KLO1 111845Z 17015KT 33/15 A301 RMK A01 T03340150  RH  033%=      5-min Rain = 0
KLO1 111846Z 17013KT 33/15 A301 RMK A01 T03330150  RH  033%=      5-min Rain = 0
KLO1 111847Z 16012KT 33/15 A301 RMK A01 T03290150  RH  034%=      5-min Rain = 0
KLO1 111848Z 17010KT 33/15 A301 RMK A01 T03280151  RH  034%=      5-min Rain = 0
KLO1 111849Z 16012KT 33/15 A301 RMK A01 T03320152  RH  034%=      5-min Rain = 0
KLO1 111850Z 17014KT 33/15 A301 RMK A01 T03340151  RH  033%=      5-min Rain = 0
KLO1 111851Z 18014KT 33/15 A301 RMK A01 T03340151  RH  033%=      5-min Rain = 0
KLO1 111852Z 16010KT 33/15 A301 RMK A01 T03340150  RH  033%=      5-min Rain = 0
KLO1 111853Z 17012KT 33/15 A301 RMK A01 T03340152  RH  034%=      5-min Rain = 0
KLO1 111854Z 15014KT 34/15 A301 RMK A01 T03350148  RH  033%=      5-min Rain = 0
KLO1 111855Z 15018KT 33/15 A301 RMK A01 T03340149  RH  033%=      5-min Rain = 0
KLO1 111856Z 16016KT 33/15 A301 RMK A01 T03320147  RH  033%=      5-min Rain = 0
KLO1 111857Z 16015KT 33/15 A301 RMK A01 T03310149  RH  033%=      5-min Rain = 0
KLO1 111858Z 16015KT 34/15 A301 RMK A01 T03360150  RH  033%=      5-min Rain = 0
KLO1 111859Z 16017KT 34/15 A3009 RMK A01 T03350148  RH  032%=      5-min Rain = 0
KLO1 111900Z 16015KT 33/15 A3009 RMK A01 T03330147  RH  033%=      5-min Rain = 0
KLO1 111901Z 15015KT 33/15 A3009 RMK A01 T03320147  RH  033%=      5-min Rain = 0
KLO1 111902Z 15016KT 33/15 A3009 RMK A01 T03310148  RH  033%=      5-min Rain = 0
KLO1 111903Z 13014KT 33/15 A3009 RMK A01 T03330148  RH  033%=      5-min Rain = 0
KLO1 111904Z 13013KT 33/15 A3009 RMK A01 T03330146  RH  032%=      5-min Rain = 0
KLO1 111905Z 15013KT 33/15 A3009 RMK A01 T03300148  RH  034%=      5-min Rain = 0
KLO1 111906Z 15016KT 33/15 A3009 RMK A01 T03310146  RH  033%=      5-min Rain = 0
KLO1 111907Z 17018KT 33/15 A3009 RMK A01 T03320146  RH  033%=      5-min Rain = 0
KLO1 111908Z 16017KT 33/15 A3009 RMK A01 T03330145  RH  032%=      5-min Rain = 0
KLO1 111909Z 16015KT 33/15 A3009 RMK A01 T03320145  RH  032%=      5-min Rain = 0
KLO1 111910Z 17013KT 33/15 A3009 RMK A01 T03330145  RH  032%=      5-min Rain = 0
KLO1 111911Z 17014KT 33/15 A3009 RMK A01 T03340147  RH  032%=      5-min Rain = 0
KLO1 111912Z 17014KT 34/15 A3009 RMK A01 T03350145  RH  032%=      5-min Rain = 0
KLO1 111913Z 16010KT 33/14 A3009 RMK A01 T03340144  RH  032%=      5-min Rain = 0
KLO1 111914Z 17011G17KT 33/15 A3009 RMK A01 T03330145  RH  032%=      5-min Rain = 0
KLO1 111915Z 17013KT 33/15 A3009 RMK A01 T03330147  RH  033%=      5-min Rain = 0
KLO1 111916Z 17018KT 34/15 A3008 RMK A01 T03370150  RH  032%=      5-min Rain = 0
KLO1 111917Z 17018KT 34/15 A3008 RMK A01 T03380148  RH  032%=      5-min Rain = 0
KLO1 111918Z 16017KT 34/15 A3008 RMK A01 T03360146  RH  032%=      5-min Rain = 0
KLO1 111919Z 16016KT 34/15 A3008 RMK A01 T03350146  RH  032%=      5-min Rain = 0
KLO1 111920Z 16014G19KT 34/15 A3008 RMK A01 T03350146  RH  032%=      5-min Rain = 0
KLO1 111921Z 17014KT 34/15 A3008 RMK A01 T03360147  RH  032%=      5-min Rain = 0
KLO1 111922Z 17013KT 34/15 A3008 RMK A01 T03350146  RH  032%=      5-min Rain = 0
KLO1 111923Z 16014KT 34/15 A3008 RMK A01 T03360147  RH  032%=      5-min Rain = 0
KLO1 111924Z 16013KT 34/15 A3008 RMK A01 T03380148  RH  032%=      5-min Rain = 0
KLO1 111925Z 15009KT 34/15 A3008 RMK A01 T03350148  RH  033%=      5-min Rain = 0
KLO1 111926Z 15011KT 34/15 A3008 RMK A01 T03370149  RH  032%=      5-min Rain = 0
KLO1 111927Z 14010KT 34/15 A3008 RMK A01 T03360149  RH  033%=      5-min Rain = 0
KLO1 111928Z 17014KT 34/15 A3008 RMK A01 T03360148  RH  032%=      5-min Rain = 0
KLO1 111929Z 17018KT 34/15 A3008 RMK A01 T03380150  RH  032%=      5-min Rain = 0
KLO1 111930Z 17015KT 34/15 A3008 RMK A01 T03390147  RH  032%=      5-min Rain = 0
KLO1 111931Z 16011KT 34/15 A3008 RMK A01 T03350147  RH  032%=      5-min Rain = 0
KLO1 111932Z 15012KT 34/15 A3008 RMK A01 T03350147  RH  032%=      5-min Rain = 0
KLO1 111933Z 16012KT 34/15 A3008 RMK A01 T03350148  RH  033%=      5-min Rain = 0
KLO1 111934Z 18014G19KT 34/15 A3008 RMK A01 T03380152  RH  033%=      5-min Rain = 0
KLO1 111935Z 19016KT 34/15 A3008 RMK A01 T03420153  RH  032%=      5-min Rain = 0
KLO1 111936Z 19014KT 34/15 A3008 RMK A01 T03400152  RH  032%=      5-min Rain = 0
KLO1 111937Z 17012KT 34/15 A3008 RMK A01 T03390152  RH  033%=      5-min Rain = 0
KLO1 111938Z 18011KT 34/15 A3007 RMK A01 T03400151  RH  032%=      5-min Rain = 0
KLO1 111939Z 18013KT 34/15 A3007 RMK A01 T03400151  RH  032%=      5-min Rain = 0
KLO1 111940Z 16017KT 34/15 A3007 RMK A01 T03390151  RH  032%=      5-min Rain = 0
KLO1 111941Z 16013KT 34/15 A3007 RMK A01 T03400152  RH  032%=      5-min Rain = 0
KLO1 111942Z 17011KT 34/15 A3007 RMK A01 T03410151  RH  032%=      5-min Rain = 0
KLO1 111943Z 18012KT 34/15 A3007 RMK A01 T03410152  RH  032%=      5-min Rain = 0
KLO1 111944Z 18011KT 34/15 A3007 RMK A01 T03440152  RH  032%=      5-min Rain = 0
KLO1 111945Z 18013G19KT 34/15 A3007 RMK A01 T03420150  RH  032%=      5-min Rain = 0
KLO1 111946Z 18016KT 34/15 A3007 RMK A01 T03430153  RH  032%=      5-min Rain = 0
KLO1 111947Z 16013G19KT 34/15 A3007 RMK A01 T03410150  RH  032%=      5-min Rain = 0
KLO1 111948Z 18014KT 34/15 A3007 RMK A01 T03400151  RH  032%=      5-min Rain = 0
KLO1 111949Z 17011KT 35/15 A3007 RMK A01 T03460154  RH  032%=      5-min Rain = 0
KLO1 111950Z 16014KT 35/15 A3007 RMK A01 T03470152  RH  031%=      5-min Rain = 0
KLO1 111951Z 16014G19KT 34/15 A3006 RMK A01 T03440151  RH  031%=      5-min Rain = 0
KLO1 111952Z 17015KT 35/15 A3006 RMK A01 T03460151  RH  031%=      5-min Rain = 0
KLO1 111953Z 15014KT 35/15 A3006 RMK A01 T03470151  RH  031%=      5-min Rain = 0
KLO1 111954Z 15012KT 35/15 A3006 RMK A01 T03500150  RH  030%=      5-min Rain = 0
KLO1 111955Z 15013G20KT 35/15 A3006 RMK A01 T03500150  RH  030%=      5-min Rain = 0
KLO1 111956Z 17016KT 35/15 A3006 RMK A01 T03490151  RH  031%=      5-min Rain = 0
KLO1 111957Z 16017KT 35/15 A3006 RMK A01 T03520152  RH  030%=      5-min Rain = 0
KLO1 111958Z 16016KT 35/15 A3006 RMK A01 T03510149  RH  030%=      5-min Rain = 0
KLO1 111959Z 17015KT 35/15 A3006 RMK A01 T03490147  RH  030%=      5-min Rain = 0
KLO1 112000Z 15011KT 35/15 A3006 RMK A01 T03460146  RH  030%=      5-min Rain = 0
KLO1 112001Z 17011KT 34/15 A3006 RMK A01 T03440147  RH  031%=      5-min Rain = 0
KLO1 112002Z 16011G17KT 34/15 A3006 RMK A01 T03430147  RH  031%=      5-min Rain = 0
KLO1 112003Z 16016KT 34/15 A3006 RMK A01 T03440150  RH  031%=      5-min Rain = 0
KLO1 112004Z 14014KT 35/15 A3006 RMK A01 T03470148  RH  030%=      5-min Rain = 0
KLO1 112005Z 15015G22KT 35/15 A3006 RMK A01 T03460146  RH  030%=      5-min Rain = 0
KLO1 112006Z 17016KT 35/15 A3006 RMK A01 T03460146  RH  030%=      5-min Rain = 0
KLO1 112007Z 17016KT 35/15 A3006 RMK A01 T03450145  RH  030%=      5-min Rain = 0
KLO1 112008Z 17015KT 34/15 A3006 RMK A01 T03430145  RH  031%=      5-min Rain = 0
KLO1 112009Z 18012KT 34/15 A3006 RMK A01 T03420145  RH  031%=      5-min Rain = 0
KLO1 112010Z 14016G24KT 34/15 A3006 RMK A01 T03420145  RH  031%=      5-min Rain = 0
KLO1 112011Z 14019KT 34/15 A3006 RMK A01 T03440145  RH  030%=      5-min Rain = 0
KLO1 112012Z 13016KT 35/15 A3006 RMK A01 T03470145  RH  030%=      5-min Rain = 0
KLO1 112013Z 15014KT 35/14 A3006 RMK A01 T03460144  RH  030%=      5-min Rain = 0
KLO1 112014Z 14011KT 34/14 A3006 RMK A01 T03420141  RH  030%=      5-min Rain = 0
KLO1 112015Z 16012KT 34/14 A3006 RMK A01 T03380143  RH  031%=      5-min Rain = 0
KLO1 112016Z 15011KT 34/15 A3006 RMK A01 T03430147  RH  031%=      5-min Rain = 0
KLO1 112017Z 16013KT 35/15 A3005 RMK A01 T03480146  RH  030%=      5-min Rain = 0
KLO1 112018Z 16012KT 35/15 A3005 RMK A01 T03490148  RH  030%=      5-min Rain = 0
KLO1 112019Z 17018G24KT 35/15 A3005 RMK A01 T03510146  RH  029%=      5-min Rain = 0
KLO1 112020Z 17014KT 35/15 A3005 RMK A01 T03480145  RH  030%=      5-min Rain = 0
KLO1 112021Z 15018KT 35/15 A3005 RMK A01 T03470147  RH  030%=      5-min Rain = 0
KLO1 112022Z 17015KT 35/15 A3005 RMK A01 T03480145  RH  030%=      5-min Rain = 0
KLO1 112023Z 17010KT 35/15 A3005 RMK A01 T03450145  RH  030%=      5-min Rain = 0
KLO1 112024Z 16011KT 35/15 A3005 RMK A01 T03460145  RH  030%=      5-min Rain = 0
KLO1 112025Z 15012KT 35/14 A3005 RMK A01 T03470144  RH  030%=      5-min Rain = 0
KLO1 112026Z 16012KT 35/14 A3005 RMK A01 T03450143  RH  030%=      5-min Rain = 0
KLO1 112027Z 18015KT 34/14 A3005 RMK A01 T03430143  RH  030%=      5-min Rain = 0
KLO1 112028Z 18014KT 34/15 A3005 RMK A01 T03430145  RH  031%=      5-min Rain = 0
KLO1 112029Z 17015KT 35/15 A3005 RMK A01 T03470148  RH  030%=      5-min Rain = 0
KLO1 112030Z 14014KT 35/15 A3005 RMK A01 T03530149  RH  030%=      5-min Rain = 0
KLO1 112031Z 14016KT 36/15 A3005 RMK A01 T03560147  RH  029%=      5-min Rain = 0
KLO1 112032Z 14015KT 36/15 A3005 RMK A01 T03550146  RH  029%=      5-min Rain = 0
KLO1 112033Z 16013KT 35/14 A3005 RMK A01 T03510144  RH  029%=      5-min Rain = 0
KLO1 112034Z 16011KT 35/14 A3005 RMK A01 T03480144  RH  029%=      5-min Rain = 0
KLO1 112035Z 17010KT 35/14 A3005 RMK A01 T03480143  RH  029%=      5-min Rain = 0
KLO1 112036Z 18014KT 35/15 A3004 RMK A01 T03500146  RH  030%=      5-min Rain = 0
KLO1 112037Z 16015KT 35/15 A3004 RMK A01 T03540145  RH  029%=      5-min Rain = 0
KLO1 112038Z 15015KT 35/14 A3004 RMK A01 T03520142  RH  029%=      5-min Rain = 0
KLO1 112039Z 15014KT 35/14 A3004 RMK A01 T03500143  RH  029%=      5-min Rain = 0
KLO1 112040Z 15016KT 35/14 A3004 RMK A01 T03500144  RH  029%=      5-min Rain = 0
KLO1 112041Z 16016KT 35/15 A3004 RMK A01 T03520147  RH  029%=      5-min Rain = 0
KLO1 112042Z 17014KT 35/15 A3004 RMK A01 T03530148  RH  029%=      5-min Rain = 0
KLO1 112043Z 17015KT 36/15 A3004 RMK A01 T03550148  RH  029%=      5-min Rain = 0
KLO1 112044Z 17016KT 36/15 A3004 RMK A01 T03560145  RH  028%=      5-min Rain = 0
KLO1 112045Z 17014KT 35/14 A3004 RMK A01 T03510143  RH  029%=      5-min Rain = 0
KLO1 112046Z 18011KT 35/14 A3004 RMK A01 T03470142  RH  029%=      5-min Rain = 0
KLO1 112047Z 18011KT 34/14 A3004 RMK A01 T03440143  RH  030%=      5-min Rain = 0
KLO1 112048Z 17011G16KT 34/14 A3004 RMK A01 T03420144  RH  030%=      5-min Rain = 0
KLO1 112049Z 15015KT 35/15 A3004 RMK A01 T03450145  RH  030%=      5-min Rain = 0
KLO1 112050Z 14014KT 35/14 A3004 RMK A01 T03490143  RH  029%=      5-min Rain = 0
KLO1 112051Z 16015KT 35/15 A3004 RMK A01 T03500145  RH  029%=      5-min Rain = 0
KLO1 112052Z 17012KT 35/15 A3004 RMK A01 T03520145  RH  029%=      5-min Rain = 0
KLO1 112053Z 18013KT 36/15 A3003 RMK A01 T03550146  RH  029%=      5-min Rain = 0
KLO1 112054Z 16010KT 35/15 A3003 RMK A01 T03530146  RH  029%=      5-min Rain = 0
KLO1 112055Z 18012KT 35/15 A3003 RMK A01 T03530146  RH  029%=      5-min Rain = 0
KLO1 112056Z 19017G22KT 35/14 A3003 RMK A01 T03500143  RH  029%=      5-min Rain = 0
KLO1 112057Z 19017KT 35/14 A3003 RMK A01 T03480143  RH  029%=      5-min Rain = 0
KLO1 112058Z 18014KT 35/14 A3003 RMK A01 T03500144  RH  029%=      5-min Rain = 0
KLO1 112059Z 18011KT 35/14 A3003 RMK A01 T03480142  RH  029%=      5-min Rain = 0
KLO1 112100Z 18012KT 34/14 A3003 RMK A01 T03430142  RH  030%=      5-min Rain = 0
KLO1 112101Z 16014KT 34/14 A3003 RMK A01 T03430141  RH  030%=      5-min Rain = 0
KLO1 112102Z 15015KT 34/14 A3003 RMK A01 T03430141  RH  030%=      5-min Rain = 0
KLO1 112103Z 15014KT 35/14 A3003 RMK A01 T03460141  RH  029%=      5-min Rain = 0
KLO1 112104Z 15014KT 35/14 A3003 RMK A01 T03480140  RH  029%=      5-min Rain = 0
KLO1 112105Z 15014KT 35/14 A3003 RMK A01 T03490140  RH  029%=      5-min Rain = 0
KLO1 112106Z 16012KT 35/14 A3003 RMK A01 T03480140  RH  029%=      5-min Rain = 0
KLO1 112107Z 15015KT 35/14 A3002 RMK A01 T03470140  RH  029%=      5-min Rain = 0
KLO1 112108Z 15013KT 35/14 A3003 RMK A01 T03500141  RH  028%=      5-min Rain = 0
KLO1 112109Z 17014KT 35/14 A3002 RMK A01 T03510139  RH  028%=      5-min Rain = 0
KLO1 112110Z 16011KT 35/14 A3002 RMK A01 T03480138  RH  028%=      5-min Rain = 0
KLO1 112111Z 17012KT 35/14 A3002 RMK A01 T03490142  RH  029%=      5-min Rain = 0
KLO1 112112Z 18014KT 35/14 A3002 RMK A01 T03530144  RH  029%=      5-min Rain = 0
KLO1 112113Z 19015KT 36/14 A3002 RMK A01 T03560143  RH  028%=      5-min Rain = 0
KLO1 112114Z 18012KT 35/14 A3002 RMK A01 T03520142  RH  029%=      5-min Rain = 0
KLO1 112115Z 18009KT 35/14 A3002 RMK A01 T03490142  RH  029%=      5-min Rain = 0
KLO1 112116Z 18011KT 35/15 A3002 RMK A01 T03480145  RH  030%=      5-min Rain = 0
KLO1 112117Z 16019KT 35/14 A3002 RMK A01 T03530142  RH  028%=      5-min Rain = 0
KLO1 112118Z 17019KT 35/14 A3002 RMK A01 T03540140  RH  028%=      5-min Rain = 0
KLO1 112119Z 17017KT 35/14 A3002 RMK A01 T03540139  RH  028%=      5-min Rain = 0
KLO1 112120Z 17014G19KT 35/14 A3002 RMK A01 T03530140  RH  028%=      5-min Rain = 0
KLO1 112121Z 16012KT 35/14 A3002 RMK A01 T03530139  RH  028%=      5-min Rain = 0
KLO1 112122Z 15013KT 35/14 A3002 RMK A01 T03510137  RH  028%=      5-min Rain = 0
KLO1 112123Z 14014KT 35/13 A3002 RMK A01 T03500134  RH  027%=      5-min Rain = 0
KLO1 112124Z 16019KT 35/14 A3001 RMK A01 T03490138  RH  028%=      5-min Rain = 0
KLO1 112125Z 17017KT 35/14 A3002 RMK A01 T03520141  RH  028%=      5-min Rain = 0
KLO1 112126Z 17014KT 35/14 A3002 RMK A01 T03510141  RH  028%=      5-min Rain = 0
KLO1 112127Z 17012KT 35/14 A3001 RMK A01 T03470140  RH  029%=      5-min Rain = 0
KLO1 112128Z 15013KT 35/14 A3001 RMK A01 T03450140  RH  029%=      5-min Rain = 0
KLO1 112129Z 15014KT 35/14 A3001 RMK A01 T03460141  RH  029%=      5-min Rain = 0
KLO1 112130Z 15016KT 35/14 A3001 RMK A01 T03480141  RH  029%=      5-min Rain = 0
KLO1 112131Z 15014KT 35/14 A3001 RMK A01 T03490139  RH  028%=      5-min Rain = 0
KLO1 112132Z 15013KT 35/14 A3001 RMK A01 T03490141  RH  029%=      5-min Rain = 0
KLO1 112133Z 16016KT 35/14 A3001 RMK A01 T03530140  RH  028%=      5-min Rain = 0
KLO1 112134Z 17013KT 35/14 A3001 RMK A01 T03530138  RH  028%=      5-min Rain = 0
KLO1 112135Z 17012G18KT 35/14 A3001 RMK A01 T03510139  RH  028%=      5-min Rain = 0
KLO1 112136Z 16014G19KT 35/14 A3001 RMK A01 T03510137  RH  028%=      5-min Rain = 0
KLO1 112137Z 16013KT 35/14 A3001 RMK A01 T03490137  RH  028%=      5-min Rain = 0
KLO1 112138Z 15014KT 35/14 A3001 RMK A01 T03480136  RH  028%=      5-min Rain = 0
KLO1 112139Z 17017KT 35/14 A3001 RMK A01 T03480137  RH  028%=      5-min Rain = 0
KLO1 112140Z 17016KT 35/14 A3001 RMK A01 T03520137  RH  028%=      5-min Rain = 0
KLO1 112141Z 17014KT 35/14 A3001 RMK A01 T03510135  RH  027%=      5-min Rain = 0
KLO1 112142Z 18012KT 35/14 A3001 RMK A01 T03500136  RH  028%=      5-min Rain = 0
KLO1 112143Z 18012KT 35/14 A3001 RMK A01 T03500136  RH  028%=      5-min Rain = 0
KLO1 112144Z 16014KT 35/14 A3001 RMK A01 T03500135  RH  028%=      5-min Rain = 0
KLO1 112145Z 16011G18KT 35/13 A3001 RMK A01 T03470133  RH  028%=      5-min Rain = 0
KLO1 112146Z 16016KT 35/14 A3001 RMK A01 T03490137  RH  028%=      5-min Rain = 0
KLO1 112147Z 16014KT 35/14 A3001 RMK A01 T03510138  RH  028%=      5-min Rain = 0
KLO1 112148Z 16013KT 35/14 A3001 RMK A01 T03490137  RH  028%=      5-min Rain = 0
KLO1 112149Z 16013KT 35/14 A3001 RMK A01 T03470139  RH  029%=      5-min Rain = 0
KLO1 112150Z 18015KT 35/14 A3001 RMK A01 T03480142  RH  029%=      5-min Rain = 0
KLO1 112151Z 18015KT 35/14 A3001 RMK A01 T03490143  RH  029%=      5-min Rain = 0
KLO1 112152Z 18014KT 35/14 A3001 RMK A01 T03460143  RH  030%=      5-min Rain = 0
KLO1 112153Z 19009KT 35/14 A3001 RMK A01 T03460143  RH  030%=      5-min Rain = 0
KLO1 112154Z 15011KT 35/14 A3001 RMK A01 T03460142  RH  030%=      5-min Rain = 0
KLO1 112155Z 15011KT 35/14 A3001 RMK A01 T03500141  RH  028%=      5-min Rain = 0
KLO1 112156Z 16011KT 35/14 A3001 RMK A01 T03520140  RH  028%=      5-min Rain = 0
KLO1 112157Z 17008KT 35/14 A3001 RMK A01 T03510139  RH  028%=      5-min Rain = 0
KLO1 112158Z 17012KT 35/14 A3001 RMK A01 T03480138  RH  028%=      5-min Rain = 0
KLO1 112159Z 17014KT 35/14 A3001 RMK A01 T03500140  RH  028%=      5-min Rain = 0
KLO1 112200Z 19016KT 35/14 A3001 RMK A01 T03520140  RH  028%=      5-min Rain = 0
KLO1 112201Z 18016KT 35/14 A3001 RMK A01 T03510140  RH  028%=      5-min Rain = 0
KLO1 112202Z 17014KT 35/14 A3001 RMK A01 T03510140  RH  028%=      5-min Rain = 0
KLO1 112203Z 18014KT 35/14 A3001 RMK A01 T03510142  RH  028%=      5-min Rain = 0
KLO1 112204Z 18013KT 35/14 A3001 RMK A01 T03510139  RH  028%=      5-min Rain = 0
KLO1 112205Z 17008KT 35/14 A3001 RMK A01 T03480139  RH  029%=      5-min Rain = 0
KLO1 112206Z 19008KT 35/14 A30 RMK A01 T03480143  RH  029%=      5-min Rain = 0
KLO1 112207Z 17008KT 35/14 A30 RMK A01 T03520143  RH  029%=      5-min Rain = 0
KLO1 112208Z 17011KT 35/14 A30 RMK A01 T03530141  RH  028%=      5-min Rain = 0
KLO1 112209Z 16014KT 36/14 A30 RMK A01 T03550141  RH  028%=      5-min Rain = 0
KLO1 112210Z 16012KT 36/14 A30 RMK A01 T03560139  RH  027%=      5-min Rain = 0
KLO1 112211Z 17013G19KT 35/14 A30 RMK A01 T03520138  RH  028%=      5-min Rain = 0
KLO1 112212Z 17018KT 35/14 A30 RMK A01 T03520140  RH  028%=      5-min Rain = 0
KLO1 112213Z 17017KT 35/14 A30 RMK A01 T03510139  RH  028%=      5-min Rain = 0
KLO1 112214Z 17014KT 35/14 A30 RMK A01 T03490138  RH  028%=      5-min Rain = 0
KLO1 112215Z 17012KT 35/14 A30 RMK A01 T03500141  RH  028%=      5-min Rain = 0
KLO1 112216Z 15012KT 35/14 A30 RMK A01 T03530140  RH  028%=      5-min Rain = 0
KLO1 112217Z 14012KT 35/14 A30 RMK A01 T03530140  RH  028%=      5-min Rain = 0
KLO1 112218Z 15015KT 35/14 A30 RMK A01 T03530142  RH  028%=      5-min Rain = 0
KLO1 112219Z 17017KT 36/14 A30 RMK A01 T03560141  RH  028%=      5-min Rain = 0
KLO1 112220Z 16017KT 35/14 A30 RMK A01 T03530139  RH  028%=      5-min Rain = 0
KLO1 112221Z 16014KT 35/14 A30 RMK A01 T03510139  RH  028%=      5-min Rain = 0
KLO1 112222Z 16013KT 35/14 A30 RMK A01 T03490138  RH  028%=      5-min Rain = 0
KLO1 112223Z 15016KT 35/14 A30 RMK A01 T03480140  RH  029%=      5-min Rain = 0
KLO1 112224Z 15014KT 35/14 A30 RMK A01 T03490139  RH  028%=      5-min Rain = 0
KLO1 112225Z 15013KT 35/14 A30 RMK A01 T03490139  RH  028%=      5-min Rain = 0
KLO1 112226Z 15012KT 35/14 A30 RMK A01 T03500140  RH  028%=      5-min Rain = 0
KLO1 112227Z 16014KT 35/14 A30 RMK A01 T03510139  RH  028%=      5-min Rain = 0
KLO1 112228Z 16013KT 35/14 A30 RMK A01 T03500139  RH  028%=      5-min Rain = 0
KLO1 112229Z 17012KT 35/14 A30 RMK A01 T03500138  RH  028%=      5-min Rain = 0
KLO1 112230Z 17010KT 35/14 A30 RMK A01 T03500139  RH  028%=      5-min Rain = 0
KLO1 112231Z 16010G15KT 35/14 A30 RMK A01 T03510138  RH  028%=      5-min Rain = 0
KLO1 112232Z 16015KT 35/14 A30 RMK A01 T03510137  RH  028%=      5-min Rain = 0
KLO1 112233Z 17016KT 35/14 A30 RMK A01 T03500138  RH  028%=      5-min Rain = 0
KLO1 112234Z 16013KT 35/14 A30 RMK A01 T03520137  RH  028%=      5-min Rain = 0
KLO1 112235Z 15012KT 35/14 A30 RMK A01 T03520138  RH  028%=      5-min Rain = 0
KLO1 112236Z 16010KT 35/14 A30 RMK A01 T03500138  RH  028%=      5-min Rain = 0
KLO1 112237Z 16011KT 35/14 A30 RMK A01 T03510139  RH  028%=      5-min Rain = 0
KLO1 112238Z 16012KT 36/14 A30 RMK A01 T03550138  RH  027%=      5-min Rain = 0
KLO1 112239Z 19012KT 35/14 A30 RMK A01 T03530137  RH  027%=      5-min Rain = 0
KLO1 112240Z 18011KT 35/14 A30 RMK A01 T03500135  RH  028%=      5-min Rain = 0
KLO1 112241Z 18013KT 35/14 A30 RMK A01 T03480137  RH  028%=      5-min Rain = 0
KLO1 112242Z 18013KT 35/14 A30 RMK A01 T03500137  RH  028%=      5-min Rain = 0
KLO1 112243Z 18013KT 35/14 A30 RMK A01 T03490137  RH  028%=      5-min Rain = 0
KLO1 112244Z 17014KT 35/14 A30 RMK A01 T03510137  RH  028%=      5-min Rain = 0
KLO1 112245Z 19013KT 35/14 A30 RMK A01 T03510137  RH  028%=      5-min Rain = 0
KLO1 112246Z 18014KT 35/14 A30 RMK A01 T03510139  RH  028%=      5-min Rain = 0
KLO1 112247Z 18013KT 35/14 A30 RMK A01 T03530137  RH  027%=      5-min Rain = 0
KLO1 112248Z 18012KT 35/14 A30 RMK A01 T03510137  RH  028%=      5-min Rain = 0
KLO1 112249Z 17009KT 35/14 A30 RMK A01 T03490137  RH  028%=      5-min Rain = 0
KLO1 112250Z 18010KT 35/14 A2999 RMK A01 T03480138  RH  028%=      5-min Rain = 0
KLO1 112251Z 18014G20KT 35/14 A2999 RMK A01 T03520139  RH  028%=      5-min Rain = 0
KLO1 112252Z 18015KT 35/14 A2999 RMK A01 T03540136  RH  027%=      5-min Rain = 0
KLO1 112253Z 19012KT 35/14 A2999 RMK A01 T03510135  RH  027%=      5-min Rain = 0
KLO1 112254Z 18015KT 35/14 A2999 RMK A01 T03520136  RH  027%=      5-min Rain = 0
KLO1 112255Z 17015KT 35/14 A2999 RMK A01 T03520135  RH  027%=      5-min Rain = 0
KLO1 112256Z 16014KT 35/14 A2999 RMK A01 T03520136  RH  027%=      5-min Rain = 0
KLO1 112257Z 16012KT 35/14 A30 RMK A01 T03520136  RH  027%=      5-min Rain = 0
KLO1 112258Z 16010KT 35/14 A2999 RMK A01 T03500137  RH  028%=      5-min Rain = 0
KLO1 112259Z 18017KT 35/14 A2999 RMK A01 T03510139  RH  028%=      5-min Rain = 0
KLO1 112300Z 18014KT 35/14 A2999 RMK A01 T03510139  RH  028%=      5-min Rain = 0
KLO1 112301Z 16013KT 35/14 A2999 RMK A01 T03510139  RH  028%=      5-min Rain = 0
KLO1 112302Z 16013KT 35/14 A2999 RMK A01 T03510139  RH  028%=      5-min Rain = 0
KLO1 112303Z 16012G17KT 35/14 A2999 RMK A01 T03500137  RH  028%=      5-min Rain = 0
KLO1 112304Z 16010KT 35/14 A30 RMK A01 T03500136  RH  028%=      5-min Rain = 0
KLO1 112305Z 15009KT 35/14 A30 RMK A01 T03490136  RH  028%=      5-min Rain = 0
KLO1 112306Z 14011KT 35/14 A30 RMK A01 T03490136  RH  028%=      5-min Rain = 0
KLO1 112307Z 15015KT 35/14 A2999 RMK A01 T03490135  RH  028%=      5-min Rain = 0
KLO1 112308Z 15016KT 35/13 A2999 RMK A01 T03490134  RH  028%=      5-min Rain = 0
KLO1 112309Z 14015KT 35/13 A30 RMK A01 T03470133  RH  028%=      5-min Rain = 0
KLO1 112310Z 15015KT 35/13 A30 RMK A01 T03490133  RH  027%=      5-min Rain = 0
KLO1 112311Z 15015KT 35/13 A2999 RMK A01 T03490134  RH  027%=      5-min Rain = 0
KLO1 112312Z 15016KT 35/14 A2999 RMK A01 T03500135  RH  027%=      5-min Rain = 0
KLO1 112313Z 17013G18KT 35/13 A2999 RMK A01 T03510133  RH  027%=      5-min Rain = 0
KLO1 112314Z 16010KT 35/13 A2999 RMK A01 T03480132  RH  027%=      5-min Rain = 0
KLO1 112315Z 15013KT 35/13 A2999 RMK A01 T03460134  RH  028%=      5-min Rain = 0
KLO1 112316Z 16014KT 35/14 A2999 RMK A01 T03500136  RH  028%=      5-min Rain = 0
KLO1 112317Z 15012KT 35/13 A2999 RMK A01 T03480133  RH  027%=      5-min Rain = 0
KLO1 112318Z 14014KT 35/13 A2999 RMK A01 T03470134  RH  028%=      5-min Rain = 0
KLO1 112319Z 14014KT 35/13 A2999 RMK A01 T03480133  RH  027%=      5-min Rain = 0
KLO1 112320Z 16011KT 35/13 A2999 RMK A01 T03480132  RH  027%=      5-min Rain = 0
KLO1 112321Z 16009KT 35/13 A2999 RMK A01 T03460132  RH  028%=      5-min Rain = 0
KLO1 112322Z 15011G17KT 35/13 A2999 RMK A01 T03460134  RH  028%=      5-min Rain = 0
KLO1 112323Z 15017KT 35/14 A2999 RMK A01 T03480136  RH  028%=      5-min Rain = 0
KLO1 112324Z 16016KT 35/14 A2999 RMK A01 T03490136  RH  028%=      5-min Rain = 0
KLO1 112325Z 16014KT 35/14 A2999 RMK A01 T03500137  RH  028%=      5-min Rain = 0
KLO1 112326Z 17012KT 35/14 A2999 RMK A01 T03490136  RH  028%=      5-min Rain = 0
KLO1 112327Z 16013KT 35/14 A2999 RMK A01 T03470136  RH  028%=      5-min Rain = 0
KLO1 112328Z 16015KT 35/14 A2999 RMK A01 T03470136  RH  028%=      5-min Rain = 0
KLO1 112329Z 16011KT 35/14 A2999 RMK A01 T03460135  RH  028%=      5-min Rain = 0
KLO1 112330Z 16010KT 35/14 A2999 RMK A01 T03460135  RH  028%=      5-min Rain = 0
KLO1 112331Z 16011KT 35/14 A2999 RMK A01 T03460135  RH  028%=      5-min Rain = 0
KLO1 112332Z 14012KT 35/13 A2999 RMK A01 T03460134  RH  028%=      5-min Rain = 0
KLO1 112333Z 14011KT 35/13 A2999 RMK A01 T03460133  RH  028%=      5-min Rain = 0
KLO1 112334Z 15011KT 35/13 A2999 RMK A01 T03470134  RH  028%=      5-min Rain = 0
KLO1 112335Z 16012KT 35/13 A2999 RMK A01 T03480134  RH  028%=      5-min Rain = 0
KLO1 112336Z 16012KT 35/14 A2999 RMK A01 T03490135  RH  028%=      5-min Rain = 0
KLO1 112337Z 17014KT 35/13 A2999 RMK A01 T03500134  RH  027%=      5-min Rain = 0
KLO1 112338Z 18014KT 35/13 A2999 RMK A01 T03490134  RH  027%=      5-min Rain = 0
KLO1 112339Z 15010G15KT 35/13 A2999 RMK A01 T03500134  RH  027%=      5-min Rain = 0
KLO1 112340Z 15013KT 35/13 A2999 RMK A01 T03510133  RH  027%=      5-min Rain = 0
KLO1 112341Z 15014KT 35/13 A2999 RMK A01 T03520132  RH  027%=      5-min Rain = 0
KLO1 112342Z 15014KT 35/13 A2999 RMK A01 T03500131  RH  027%=      5-min Rain = 0
KLO1 112343Z 15015KT 35/13 A2999 RMK A01 T03490132  RH  027%=      5-min Rain = 0
KLO1 112344Z 15014KT 35/13 A2999 RMK A01 T03480132  RH  027%=      5-min Rain = 0
KLO1 112345Z 15011KT 35/13 A2999 RMK A01 T03480133  RH  027%=      5-min Rain = 0
KLO1 112346Z 15013KT 35/13 A2999 RMK A01 T03480133  RH  027%=      5-min Rain = 0
KLO1 112347Z 17009KT 35/13 A2999 RMK A01 T03480132  RH  027%=      5-min Rain = 0
KLO1 112348Z 15010KT 35/13 A2999 RMK A01 T03460132  RH  028%=      5-min Rain = 0
KLO1 112349Z 15013KT 35/13 A2999 RMK A01 T03460133  RH  028%=      5-min Rain = 0
KLO1 112350Z 16014KT 35/13 A2999 RMK A01 T03480133  RH  028%=      5-min Rain = 0
KLO1 112351Z 15011KT 35/13 A2999 RMK A01 T03470132  RH  028%=      5-min Rain = 0
KLO1 112352Z 16010KT 35/13 A2999 RMK A01 T03450131  RH  028%=      5-min Rain = 0
KLO1 112353Z 15012KT 35/13 A2999 RMK A01 T03460133  RH  028%=      5-min Rain = 0
KLO1 112354Z 16011KT 35/13 A2999 RMK A01 T03480131  RH  027%=      5-min Rain = 0
KLO1 112355Z 15009G14KT 35/13 A2999 RMK A01 T03460131  RH  027%=      5-min Rain = 0
KLO1 112356Z 15012KT 35/13 A2999 RMK A01 T03470132  RH  028%=      5-min Rain = 0
KLO1 112357Z 15012KT 35/13 A2999 RMK A01 T03480132  RH  027%=      5-min Rain = 0
KLO1 112358Z 16014KT 35/13 A2999 RMK A01 T03480132  RH  027%=      5-min Rain = 0
KLO1 112359Z 16014KT 35/13 A2999 RMK A01 T03470130  RH  027%=      5-min Rain = 0
KLO1 120000Z 16014KT 35/13 A2999 RMK A01 T03460131  RH  027%=      5-min Rain = 0
KLO1 120001Z 15011KT 35/13 A2999 RMK A01 T03450130  RH  027%=      5-min Rain = 0
KLO1 120002Z 15012KT 34/13 A2999 RMK A01 T03440128  RH  027%=      5-min Rain = 0
KLO1 120003Z 15010KT 34/13 A2999 RMK A01 T03420128  RH  027%=      5-min Rain = 0
KLO1 120004Z 16011KT 34/13 A2999 RMK A01 T03420130  RH  028%=      5-min Rain = 0
KLO1 120005Z 17011KT 34/13 A2999 RMK A01 T03440130  RH  028%=      5-min Rain = 0
KLO1 120006Z 17010KT 34/13 A2999 RMK A01 T03440128  RH  027%=      5-min Rain = 0
KLO1 120007Z 16009G15KT 34/13 A2999 RMK A01 T03430128  RH  027%=      5-min Rain = 0
KLO1 120008Z 16013KT 34/13 A2999 RMK A01 T03430129  RH  027%=      5-min Rain = 0
KLO1 120009Z 16011KT 34/13 A2999 RMK A01 T03430128  RH  027%=      5-min Rain = 0
KLO1 120010Z 18011KT 34/13 A2999 RMK A01 T03440130  RH  027%=      5-min Rain = 0
KLO1 120011Z 18009KT 35/13 A2999 RMK A01 T03450128  RH  027%=      5-min Rain = 0
KLO1 120012Z 18011KT 34/13 A2999 RMK A01 T03440128  RH  027%=      5-min Rain = 0
KLO1 120013Z 18008KT 34/13 A2999 RMK A01 T03440127  RH  027%=      5-min Rain = 0
KLO1 120014Z 18007KT 34/13 A2999 RMK A01 T03430127  RH  027%=      5-min Rain = 0
KLO1 120015Z 17010KT 34/13 A2999 RMK A01 T03430127  RH  027%=      5-min Rain = 0
KLO1 120016Z 16011KT 34/13 A2999 RMK A01 T03430130  RH  028%=      5-min Rain = 0
KLO1 120017Z 17012KT 34/13 A2999 RMK A01 T03430131  RH  028%=      5-min Rain = 0
KLO1 120018Z 17013KT 34/13 A2999 RMK A01 T03430129  RH  027%=      5-min Rain = 0
KLO1 120019Z 17013KT 34/13 A2999 RMK A01 T03420127  RH  027%=      5-min Rain = 0
KLO1 120020Z 17012KT 34/13 A2999 RMK A01 T03430127  RH  027%=      5-min Rain = 0
KLO1 120021Z 16013KT 34/13 A2999 RMK A01 T03440129  RH  027%=      5-min Rain = 0
KLO1 120022Z 16014KT 34/13 A2999 RMK A01 T03430131  RH  028%=      5-min Rain = 0
KLO1 120023Z 16012KT 34/13 A2999 RMK A01 T03430131  RH  028%=      5-min Rain = 0
KLO1 120024Z 16011KT 34/13 A2999 RMK A01 T03430129  RH  027%=      5-min Rain = 0
KLO1 120025Z 16012KT 34/13 A2999 RMK A01 T03420130  RH  028%=      5-min Rain = 0
KLO1 120026Z 16010KT 34/13 A2999 RMK A01 T03420133  RH  028%=      5-min Rain = 0
KLO1 120027Z 17010KT 34/13 A2999 RMK A01 T03430134  RH  028%=      5-min Rain = 0
KLO1 120028Z 17011KT 34/13 A2999 RMK A01 T03440132  RH  028%=      5-min Rain = 0
KLO1 120029Z 17010KT 34/13 A2999 RMK A01 T03430129  RH  027%=      5-min Rain = 0
KLO1 120030Z 16011KT 34/13 A2999 RMK A01 T03420130  RH  028%=      5-min Rain = 0
KLO1 120031Z 16009KT 34/13 A2999 RMK A01 T03420129  RH  028%=      5-min Rain = 0
KLO1 120032Z 17010KT 34/13 A2999 RMK A01 T03420130  RH  028%=      5-min Rain = 0
KLO1 120033Z 18009KT 34/13 A2999 RMK A01 T03430130  RH  028%=      5-min Rain = 0
KLO1 120034Z 18008KT 34/13 A2999 RMK A01 T03420130  RH  028%=      5-min Rain = 0
KLO1 120035Z 18010KT 34/13 A2999 RMK A01 T03420131  RH  028%=      5-min Rain = 0
KLO1 120036Z 17010KT 34/13 A2999 RMK A01 T03420132  RH  028%=      5-min Rain = 0
KLO1 120037Z 18015KT 34/13 A2999 RMK A01 T03410133  RH  028%=      5-min Rain = 0
KLO1 120038Z 18013KT 34/13 A2999 RMK A01 T03410132  RH  028%=      5-min Rain = 0
KLO1 120039Z 18014KT 34/13 A2999 RMK A01 T03410132  RH  028%=      5-min Rain = 0
KLO1 120040Z 18015KT 34/13 A2999 RMK A01 T03410132  RH  028%=      5-min Rain = 0
KLO1 120041Z 18012KT 34/13 A2999 RMK A01 T03400132  RH  028%=      5-min Rain = 0
KLO1 120042Z 17012KT 34/13 A2999 RMK A01 T03400132  RH  028%=      5-min Rain = 0
KLO1 120043Z 17012KT 34/13 A2999 RMK A01 T03400131  RH  028%=      5-min Rain = 0
KLO1 120044Z 17012KT 34/13 A2999 RMK A01 T03400131  RH  028%=      5-min Rain = 0
KLO1 120045Z 18011KT 34/13 A2999 RMK A01 T03400133  RH  029%=      5-min Rain = 0
KLO1 120046Z 17011KT 34/14 A2999 RMK A01 T03400135  RH  029%=      5-min Rain = 0
KLO1 120047Z 16012KT 34/14 A2999 RMK A01 T03410137  RH  029%=      5-min Rain = 0
KLO1 120048Z 16013KT 34/14 A2999 RMK A01 T03410137  RH  029%=      5-min Rain = 0
KLO1 120049Z 17015KT 34/14 A2999 RMK A01 T03400137  RH  030%=      5-min Rain = 0
KLO1 120050Z 16014KT 34/14 A2999 RMK A01 T03390136  RH  029%=      5-min Rain = 0
KLO1 120051Z 17013KT 34/14 A2999 RMK A01 T03390137  RH  030%=      5-min Rain = 0
KLO1 120052Z 16012KT 34/14 A2999 RMK A01 T03380137  RH  030%=      5-min Rain = 0
KLO1 120053Z 16011KT 34/14 A2999 RMK A01 T03380137  RH  030%=      5-min Rain = 0
KLO1 120054Z 16011KT 34/14 A2999 RMK A01 T03390138  RH  030%=      5-min Rain = 0
KLO1 120055Z 17013KT 34/14 A2999 RMK A01 T03390137  RH  030%=      5-min Rain = 0
KLO1 120056Z 17012KT 34/14 A2999 RMK A01 T03390136  RH  030%=      5-min Rain = 0
KLO1 120057Z 17013KT 34/14 A2999 RMK A01 T03380135  RH  029%=      5-min Rain = 0
KLO1 120058Z 17011KT 34/13 A30 RMK A01 T03370134  RH  029%=      5-min Rain = 0
KLO1 120059Z 17011KT 34/14 A30 RMK A01 T03370135  RH  030%=      5-min Rain = 0
KLO1 120100Z 17009KT 34/14 A30 RMK A01 T03360135  RH  030%=      5-min Rain = 0
KLO1 120101Z 17008KT 34/14 A30 RMK A01 T03360137  RH  030%=      5-min Rain = 0
KLO1 120102Z 16009KT 34/14 A30 RMK A01 T03360137  RH  030%=      5-min Rain = 0
KLO1 120103Z 17011KT 34/14 A30 RMK A01 T03360137  RH  030%=      5-min Rain = 0
KLO1 120104Z 16012KT 34/14 A30 RMK A01 T03360136  RH  030%=      5-min Rain = 0
KLO1 120105Z 17011KT 34/14 A30 RMK A01 T03350136  RH  030%=      5-min Rain = 0
KLO1 120106Z 18012KT 34/14 A30 RMK A01 T03350135  RH  030%=      5-min Rain = 0
KLO1 120107Z 18011KT 34/14 A30 RMK A01 T03350135  RH  030%=      5-min Rain = 0
KLO1 120108Z 18011KT 34/14 A30 RMK A01 T03350135  RH  030%=      5-min Rain = 0
KLO1 120109Z 18011KT 34/13 A30 RMK A01 T03350134  RH  030%=      5-min Rain = 0
KLO1 120110Z 18011KT 34/14 A30 RMK A01 T03350135  RH  030%=      5-min Rain = 0
KLO1 120111Z 18011KT 33/14 A30 RMK A01 T03340136  RH  030%=      5-min Rain = 0
KLO1 120112Z 18011KT 33/13 A30 RMK A01 T03330134  RH  030%=      5-min Rain = 0
KLO1 120113Z 18010KT 33/13 A30 RMK A01 T03320134  RH  030%=      5-min Rain = 0
KLO1 120114Z 18010KT 33/13 A30 RMK A01 T03320134  RH  030%=      5-min Rain = 0
KLO1 120115Z 19009KT 33/13 A30 RMK A01 T03310134  RH  030%=      5-min Rain = 0
KLO1 120116Z 18009KT 33/13 A30 RMK A01 T03310133  RH  030%=      5-min Rain = 0
KLO1 120117Z 18009KT 33/13 A30 RMK A01 T03300133  RH  030%=      5-min Rain = 0
KLO1 120118Z 18009KT 33/13 A30 RMK A01 T03300133  RH  030%=      5-min Rain = 0
KLO1 120119Z 18008KT 33/13 A30 RMK A01 T03290133  RH  031%=      5-min Rain = 0
KLO1 120120Z 18008KT 33/13 A30 RMK A01 T03290134  RH  031%=      5-min Rain = 0
KLO1 120121Z 18011KT 33/13 A30 RMK A01 T03280134  RH  031%=      5-min Rain = 0
KLO1 120122Z 17013KT 33/13 A30 RMK A01 T03280134  RH  031%=      5-min Rain = 0
KLO1 120123Z 17012KT 33/13 A30 RMK A01 T03280134  RH  031%=      5-min Rain = 0
KLO1 120124Z 17012KT 33/13 A30 RMK A01 T03280134  RH  031%=      5-min Rain = 0
KLO1 120125Z 17012KT 33/13 A30 RMK A01 T03270133  RH  031%=      5-min Rain = 0
KLO1 120126Z 17011KT 33/13 A30 RMK A01 T03270132  RH  031%=      5-min Rain = 0
KLO1 120127Z 17010KT 33/13 A30 RMK A01 T03270133  RH  031%=      5-min Rain = 0
KLO1 120128Z 17010KT 33/13 A30 RMK A01 T03260133  RH  031%=      5-min Rain = 0
KLO1 120129Z 17009KT 33/13 A30 RMK A01 T03250133  RH  031%=      5-min Rain = 0
KLO1 120130Z 17008KT 33/13 A30 RMK A01 T03250134  RH  031%=      5-min Rain = 0
KLO1 120131Z 17009KT 32/14 A30 RMK A01 T03240135  RH  032%=      5-min Rain = 0
KLO1 120132Z 17008KT 32/14 A30 RMK A01 T03230135  RH  032%=      5-min Rain = 0
KLO1 120133Z 18009KT 32/14 A30 RMK A01 T03220135  RH  032%=      5-min Rain = 0
KLO1 120134Z 18009KT 32/14 A30 RMK A01 T03220135  RH  032%=      5-min Rain = 0
KLO1 120135Z 18009KT 32/13 A30 RMK A01 T03220134  RH  032%=      5-min Rain = 0
KLO1 120136Z 18009KT 32/13 A30 RMK A01 T03220134  RH  032%=      5-min Rain = 0
KLO1 120137Z 18009KT 32/13 A30 RMK A01 T03220134  RH  032%=      5-min Rain = 0
KLO1 120138Z 18009KT 32/13 A30 RMK A01 T03210134  RH  032%=      5-min Rain = 0
KLO1 120139Z 18009KT 32/13 A30 RMK A01 T03210134  RH  032%=      5-min Rain = 0
KLO1 120140Z 18009KT 32/13 A30 RMK A01 T03200134  RH  032%=      5-min Rain = 0
KLO1 120141Z 18008KT 32/13 A30 RMK A01 T03190134  RH  032%=      5-min Rain = 0
KLO1 120142Z 18008KT 32/13 A30 RMK A01 T03190134  RH  033%=      5-min Rain = 0
KLO1 120143Z 18009KT 32/13 A30 RMK A01 T03180134  RH  033%=      5-min Rain = 0
KLO1 120144Z 18010KT 32/13 A30 RMK A01 T03180134  RH  033%=      5-min Rain = 0
KLO1 120145Z 17010KT 32/13 A30 RMK A01 T03180134  RH  033%=      5-min Rain = 0
KLO1 120146Z 17009KT 32/13 A3001 RMK A01 T03180133  RH  033%=      5-min Rain = 0
KLO1 120147Z 18010KT 32/13 A3001 RMK A01 T03180134  RH  033%=      5-min Rain = 0
KLO1 120148Z 18009KT 32/13 A3001 RMK A01 T03180134  RH  033%=      5-min Rain = 0
KLO1 120149Z 18009KT 32/13 A3001 RMK A01 T03170134  RH  033%=      5-min Rain = 0
KLO1 120150Z 18008KT 32/13 A3001 RMK A01 T03170134  RH  033%=      5-min Rain = 0
KLO1 120151Z 18008KT 32/13 A3001 RMK A01 T03170134  RH  033%=      5-min Rain = 0
KLO1 120152Z 18008KT 32/13 A3001 RMK A01 T03160134  RH  033%=      5-min Rain = 0
KLO1 120153Z 18008KT 32/13 A3001 RMK A01 T03160134  RH  033%=      5-min Rain = 0
KLO1 120154Z 18008KT 32/13 A3001 RMK A01 T03150134  RH  033%=      5-min Rain = 0
KLO1 120155Z 18009KT 32/13 A3001 RMK A01 T03150134  RH  033%=      5-min Rain = 0
KLO1 120156Z 18008KT 32/13 A3001 RMK A01 T03150134  RH  033%=      5-min Rain = 0
KLO1 120157Z 18009KT 32/13 A3001 RMK A01 T03150133  RH  033%=      5-min Rain = 0
KLO1 120158Z 18010KT 32/13 A3001 RMK A01 T03150133  RH  033%=      5-min Rain = 0
KLO1 120159Z 18009KT 32/13 A3001 RMK A01 T03150133  RH  033%=      5-min Rain = 0
KLO1 120200Z 18009KT 32/13 A3001 RMK A01 T03150133  RH  033%=      5-min Rain = 0
KLO1 120201Z 18009KT 31/13 A3001 RMK A01 T03140133  RH  033%=      5-min Rain = 0
KLO1 120202Z 18009KT 31/13 A3001 RMK A01 T03130133  RH  033%=      5-min Rain = 0
KLO1 120203Z 18009KT 31/13 A3001 RMK A01 T03120134  RH  034%=      5-min Rain = 0
KLO1 120204Z 18009KT 31/13 A3001 RMK A01 T03120134  RH  034%=      5-min Rain = 0
KLO1 120205Z 18008KT 31/13 A3001 RMK A01 T03110134  RH  034%=      5-min Rain = 0
KLO1 120206Z 18008KT 31/13 A3001 RMK A01 T03110134  RH  034%=      5-min Rain = 0
KLO1 120207Z 18008KT 31/13 A3001 RMK A01 T03100134  RH  034%=      5-min Rain = 0
KLO1 120208Z 18008KT 31/13 A3001 RMK A01 T03100134  RH  034%=      5-min Rain = 0
KLO1 120209Z 18008KT 31/13 A3001 RMK A01 T03090134  RH  034%=      5-min Rain = 0
KLO1 120210Z 18008KT 31/13 A3002 RMK A01 T03090134  RH  034%=      5-min Rain = 0
KLO1 120211Z 18007KT 31/13 A3002 RMK A01 T03080134  RH  035%=      5-min Rain = 0
KLO1 120212Z 18008KT 31/13 A3002 RMK A01 T03080134  RH  035%=      5-min Rain = 0
KLO1 120213Z 18007KT 31/14 A3002 RMK A01 T03070135  RH  035%=      5-min Rain = 0
KLO1 120214Z 18007KT 31/14 A3002 RMK A01 T03060135  RH  035%=      5-min Rain = 0
KLO1 120215Z 18007KT 31/14 A3002 RMK A01 T03050135  RH  035%=      5-min Rain = 0
KLO1 120216Z 18007KT 31/14 A3002 RMK A01 T03050135  RH  036%=      5-min Rain = 0
KLO1 120217Z 18007KT 30/14 A3002 RMK A01 T03040135  RH  036%=      5-min Rain = 0
KLO1 120218Z 18007KT 30/14 A3002 RMK A01 T03030136  RH  036%=      5-min Rain = 0
KLO1 120219Z 18007KT 30/14 A3002 RMK A01 T03030136  RH  036%=      5-min Rain = 0
KLO1 120220Z 18008KT 30/14 A3002 RMK A01 T03020136  RH  036%=      5-min Rain = 0
KLO1 120221Z 18008KT 30/14 A3002 RMK A01 T03010136  RH  036%=      5-min Rain = 0
KLO1 120222Z 18008KT 30/14 A3002 RMK A01 T03000136  RH  037%=      5-min Rain = 0
KLO1 120223Z 18007KT 30/14 A3002 RMK A01 T03000136  RH  037%=      5-min Rain = 0
KLO1 120224Z 18007KT 30/14 A3002 RMK A01 T03000136  RH  037%=      5-min Rain = 0
KLO1 120225Z 18007KT 30/14 A3002 RMK A01 T03000136  RH  037%=      5-min Rain = 0
KLO1 120226Z 18007KT 30/14 A3002 RMK A01 T02990136  RH  037%=      5-min Rain = 0
KLO1 120227Z 18007KT 30/14 A3002 RMK A01 T02990136  RH  037%=      5-min Rain = 0
KLO1 120228Z 18007KT 30/14 A3002 RMK A01 T02980136  RH  037%=      5-min Rain = 0
KLO1 120229Z 18007KT 30/14 A3002 RMK A01 T02980136  RH  037%=      5-min Rain = 0
KLO1 120230Z 18007KT 30/14 A3002 RMK A01 T02970136  RH  037%=      5-min Rain = 0
KLO1 120231Z 18007KT 30/14 A3002 RMK A01 T02970137  RH  037%=      5-min Rain = 0
KLO1 120232Z 18007KT 30/14 A3002 RMK A01 T02970136  RH  037%=      5-min Rain = 0
KLO1 120233Z 17007KT 30/14 A3002 RMK A01 T02960136  RH  038%=      5-min Rain = 0
KLO1 120234Z 17007KT 30/14 A3002 RMK A01 T02950137  RH  038%=      5-min Rain = 0
KLO1 120235Z 17007KT 30/14 A3002 RMK A01 T02950137  RH  038%=      5-min Rain = 0
KLO1 120236Z 17007KT 29/14 A3002 RMK A01 T02940138  RH  038%=      5-min Rain = 0
KLO1 120237Z 17007KT 29/14 A3002 RMK A01 T02940137  RH  038%=      5-min Rain = 0
KLO1 120238Z 17007KT 29/14 A3002 RMK A01 T02940137  RH  038%=      5-min Rain = 0
KLO1 120239Z 17007KT 29/14 A3002 RMK A01 T02930137  RH  038%=      5-min Rain = 0
KLO1 120240Z 17007KT 29/14 A3003 RMK A01 T02930137  RH  038%=      5-min Rain = 0
KLO1 120241Z 17007KT 29/14 A3003 RMK A01 T02930137  RH  038%=      5-min Rain = 0
KLO1 120242Z 17007KT 29/14 A3003 RMK A01 T02930137  RH  038%=      5-min Rain = 0
KLO1 120243Z 17007KT 29/14 A3003 RMK A01 T02930137  RH  038%=      5-min Rain = 0
KLO1 120244Z 18007KT 29/14 A3003 RMK A01 T02930137  RH  038%=      5-min Rain = 0
KLO1 120245Z 18007KT 29/14 A3003 RMK A01 T02930137  RH  038%=      5-min Rain = 0
KLO1 120246Z 18007KT 29/14 A3003 RMK A01 T02930137  RH  038%=      5-min Rain = 0
KLO1 120247Z 18007KT 29/14 A3003 RMK A01 T02920137  RH  039%=      5-min Rain = 0
KLO1 120248Z 18007KT 29/14 A3003 RMK A01 T02920138  RH  039%=      5-min Rain = 0
KLO1 120249Z 18007KT 29/14 A3003 RMK A01 T02910138  RH  039%=      5-min Rain = 0
KLO1 120250Z 18007KT 29/14 A3003 RMK A01 T02900138  RH  039%=      5-min Rain = 0
KLO1 120251Z 17007KT 29/14 A3003 RMK A01 T02900137  RH  039%=      5-min Rain = 0
KLO1 120252Z 17007KT 29/14 A3003 RMK A01 T02900138  RH  039%=      5-min Rain = 0
KLO1 120253Z 18007KT 29/14 A3003 RMK A01 T02900137  RH  039%=      5-min Rain = 0
KLO1 120254Z 17007KT 29/14 A3003 RMK A01 T02890137  RH  039%=      5-min Rain = 0
KLO1 120255Z 18007KT 29/14 A3004 RMK A01 T02900138  RH  039%=      5-min Rain = 0
KLO1 120256Z 17007KT 29/14 A3004 RMK A01 T02890137  RH  039%=      5-min Rain = 0
KLO1 120257Z 18006KT 29/14 A3004 RMK A01 T02900138  RH  039%=      5-min Rain = 0
KLO1 120258Z 18006KT 29/14 A3004 RMK A01 T02890138  RH  039%=      5-min Rain = 0
KLO1 120259Z 17006KT 29/14 A3004 RMK A01 T02890137  RH  039%=      5-min Rain = 0
KLO1 120300Z 17006KT 29/14 A3004 RMK A01 T02890138  RH  040%=      5-min Rain = 0
KLO1 120301Z 17006KT 29/14 A3004 RMK A01 T02880138  RH  040%=      5-min Rain = 0
KLO1 120302Z 17006KT 29/14 A3004 RMK A01 T02880138  RH  040%=      5-min Rain = 0
KLO1 120303Z 17006KT 29/14 A3004 RMK A01 T02870138  RH  040%=      5-min Rain = 0
KLO1 120304Z 17006KT 29/14 A3004 RMK A01 T02860138  RH  040%=      5-min Rain = 0
KLO1 120305Z 17006KT 29/14 A3004 RMK A01 T02850138  RH  040%=      5-min Rain = 0
KLO1 120306Z 17006KT 29/14 A3004 RMK A01 T02850138  RH  040%=      5-min Rain = 0
KLO1 120307Z 17006KT 29/14 A3004 RMK A01 T02850138  RH  041%=      5-min Rain = 0
KLO1 120308Z 17006KT 29/14 A3004 RMK A01 T02850138  RH  041%=      5-min Rain = 0
KLO1 120309Z 17006KT 28/14 A3004 RMK A01 T02840138  RH  041%=      5-min Rain = 0
KLO1 120310Z 18005KT 28/14 A3004 RMK A01 T02840139  RH  041%=      5-min Rain = 0
KLO1 120311Z 18006KT 28/14 A3004 RMK A01 T02830138  RH  041%=      5-min Rain = 0
KLO1 120312Z 18006KT 28/14 A3004 RMK A01 T02810138  RH  041%=      5-min Rain = 0
KLO1 120313Z 17006KT 28/14 A3004 RMK A01 T02800139  RH  042%=      5-min Rain = 0
KLO1 120314Z 17006KT 28/14 A3004 RMK A01 T02800139  RH  042%=      5-min Rain = 0
KLO1 120315Z 17006KT 28/14 A3004 RMK A01 T02800139  RH  042%=      5-min Rain = 0
KLO1 120316Z 17006KT 28/14 A3005 RMK A01 T02800139  RH  042%=      5-min Rain = 0
KLO1 120317Z 17006KT 28/14 A3005 RMK A01 T02800139  RH  042%=      5-min Rain = 0
KLO1 120318Z 17006KT 28/14 A3005 RMK A01 T02800139  RH  042%=      5-min Rain = 0
KLO1 120319Z 17006KT 28/14 A3005 RMK A01 T02790139  RH  042%=      5-min Rain = 0
KLO1 120320Z 17006KT 28/14 A3005 RMK A01 T02780139  RH  042%=      5-min Rain = 0
KLO1 120321Z 17006KT 28/14 A3005 RMK A01 T02770139  RH  043%=      5-min Rain = 0
KLO1 120322Z 17006KT 28/14 A3005 RMK A01 T02760139  RH  043%=      5-min Rain = 0
KLO1 120323Z 17006KT 28/14 A3005 RMK A01 T02760139  RH  043%=      5-min Rain = 0
KLO1 120324Z 17006KT 28/14 A3005 RMK A01 T02760139  RH  043%=      5-min Rain = 0
KLO1 120325Z 17007KT 28/14 A3005 RMK A01 T02750139  RH  043%=      5-min Rain = 0
KLO1 120326Z 17007KT 28/14 A3005 RMK A01 T02750139  RH  043%=      5-min Rain = 0
KLO1 120327Z 17007KT 27/14 A3005 RMK A01 T02740139  RH  043%=      5-min Rain = 0
KLO1 120328Z 17007KT 28/14 A3005 RMK A01 T02750139  RH  043%=      5-min Rain = 0
KLO1 120329Z 16007KT 28/14 A3005 RMK A01 T02750140  RH  043%=      5-min Rain = 0
KLO1 120330Z 16007KT 28/14 A3005 RMK A01 T02760140  RH  043%=      5-min Rain = 0
KLO1 120331Z 16007KT 28/14 A3005 RMK A01 T02760140  RH  043%=      5-min Rain = 0
KLO1 120332Z 17007KT 28/14 A3005 RMK A01 T02760140  RH  043%=      5-min Rain = 0
KLO1 120333Z 17007KT 28/14 A3005 RMK A01 T02760140  RH  043%=      5-min Rain = 0
KLO1 120334Z 17007KT 28/14 A3005 RMK A01 T02760140  RH  043%=      5-min Rain = 0
KLO1 120335Z 17007KT 28/14 A3005 RMK A01 T02760140  RH  043%=      5-min Rain = 0
KLO1 120336Z 17007KT 28/14 A3005 RMK A01 T02760140  RH  043%=      5-min Rain = 0
KLO1 120337Z 17007KT 28/14 A3005 RMK A01 T02760141  RH  044%=      5-min Rain = 0
KLO1 120338Z 17007KT 28/14 A3005 RMK A01 T02760141  RH  044%=      5-min Rain = 0
KLO1 120339Z 17007KT 28/14 A3005 RMK A01 T02760142  RH  044%=      5-min Rain = 0
KLO1 120340Z 17006KT 28/14 A3005 RMK A01 T02750141  RH  044%=      5-min Rain = 0
KLO1 120341Z 17007KT 28/14 A3006 RMK A01 T02750141  RH  044%=      5-min Rain = 0
KLO1 120342Z 17006KT 28/14 A3006 RMK A01 T02750141  RH  044%=      5-min Rain = 0
KLO1 120343Z 17006KT 28/14 A3006 RMK A01 T02750141  RH  044%=      5-min Rain = 0
KLO1 120344Z 17006KT 28/14 A3006 RMK A01 T02750141  RH  044%=      5-min Rain = 0
KLO1 120345Z 17006KT 28/14 A3006 RMK A01 T02750142  RH  044%=      5-min Rain = 0
KLO1 120346Z 17007KT 28/14 A3006 RMK A01 T02750142  RH  044%=      5-min Rain = 0
KLO1 120347Z 17006KT 28/14 A3006 RMK A01 T02750142  RH  044%=      5-min Rain = 0
KLO1 120348Z 17006KT 28/14 A3006 RMK A01 T02750142  RH  044%=      5-min Rain = 0
KLO1 120349Z 17006KT 28/14 A3006 RMK A01 T02750142  RH  044%=      5-min Rain = 0
KLO1 120350Z 17006KT 28/14 A3006 RMK A01 T02750143  RH  044%=      5-min Rain = 0
KLO1 120351Z 17006KT 28/14 A3006 RMK A01 T02750143  RH  044%=      5-min Rain = 0
KLO1 120352Z 17006KT 27/14 A3006 RMK A01 T02740143  RH  045%=      5-min Rain = 0
KLO1 120353Z 17006KT 27/14 A3006 RMK A01 T02740143  RH  045%=      5-min Rain = 0
KLO1 120354Z 17006KT 27/14 A3006 RMK A01 T02730142  RH  045%=      5-min Rain = 0
KLO1 120355Z 17006KT 27/14 A3006 RMK A01 T02720142  RH  045%=      5-min Rain = 0
KLO1 120356Z 17006KT 27/14 A3006 RMK A01 T02720142  RH  045%=      5-min Rain = 0
KLO1 120357Z 18006KT 27/14 A3006 RMK A01 T02710142  RH  045%=      5-min Rain = 0
KLO1 120358Z 18006KT 27/14 A3006 RMK A01 T02710142  RH  045%=      5-min Rain = 0
KLO1 120359Z 17006KT 27/14 A3006 RMK A01 T02700142  RH  045%=      5-min Rain = 0
KLO1 120400Z 18006KT 27/14 A3006 RMK A01 T02690142  RH  046%=      5-min Rain = 0
KLO1 120401Z 18006KT 27/14 A3006 RMK A01 T02670142  RH  046%=      5-min Rain = 0
KLO1 120402Z 18006KT 27/14 A3006 RMK A01 T02660143  RH  047%=      5-min Rain = 0
KLO1 120403Z 18006KT 27/14 A3006 RMK A01 T02650143  RH  047%=      5-min Rain = 0
KLO1 120404Z 18006KT 27/14 A3006 RMK A01 T02650143  RH  047%=      5-min Rain = 0
KLO1 120405Z 18006KT 27/14 A3006 RMK A01 T02650143  RH  047%=      5-min Rain = 0
KLO1 120406Z 18006KT 26/14 A3006 RMK A01 T02640144  RH  047%=      5-min Rain = 0
KLO1 120407Z 18006KT 26/14 A3006 RMK A01 T02640144  RH  048%=      5-min Rain = 0
KLO1 120408Z 18006KT 26/14 A3006 RMK A01 T02640144  RH  048%=      5-min Rain = 0
KLO1 120409Z 18006KT 26/14 A3006 RMK A01 T02640144  RH  048%=      5-min Rain = 0
KLO1 120410Z 18006KT 26/14 A3006 RMK A01 T02640144  RH  048%=      5-min Rain = 0
KLO1 120411Z 18007KT 26/14 A3006 RMK A01 T02640144  RH  048%=      5-min Rain = 0
KLO1 120412Z 18007KT 26/14 A3006 RMK A01 T02640144  RH  048%=      5-min Rain = 0
KLO1 120413Z 18007KT 27/14 A3006 RMK A01 T02650144  RH  047%=      5-min Rain = 0
KLO1 120414Z 18007KT 27/14 A3006 RMK A01 T02650144  RH  047%=      5-min Rain = 0
KLO1 120415Z 18007KT 27/14 A3006 RMK A01 T02650144  RH  047%=      5-min Rain = 0
KLO1 120416Z 18007KT 27/14 A3006 RMK A01 T02650144  RH  047%=      5-min Rain = 0
KLO1 120417Z 18006KT 27/14 A3006 RMK A01 T02650144  RH  047%=      5-min Rain = 0
KLO1 120418Z 18006KT 27/14 A3006 RMK A01 T02650144  RH  047%=      5-min Rain = 0
KLO1 120419Z 18006KT 26/15 A3006 RMK A01 T02640145  RH  048%=      5-min Rain = 0
KLO1 120420Z 18006KT 26/15 A3006 RMK A01 T02640145  RH  048%=      5-min Rain = 0
KLO1 120421Z 18006KT 26/15 A3006 RMK A01 T02630145  RH  048%=      5-min Rain = 0
KLO1 120422Z 18006KT 26/15 A3006 RMK A01 T02630146  RH  049%=      5-min Rain = 0
KLO1 120423Z 18006KT 26/15 A3006 RMK A01 T02620146  RH  049%=      5-min Rain = 0
KLO1 120424Z 18006KT 26/15 A3006 RMK A01 T02610146  RH  049%=      5-min Rain = 0
KLO1 120425Z 18007KT 26/15 A3006 RMK A01 T02600146  RH  049%=      5-min Rain = 0
KLO1 120426Z 18006KT 26/15 A3006 RMK A01 T02600146  RH  049%=      5-min Rain = 0
KLO1 120427Z 18006KT 26/15 A3006 RMK A01 T02600146  RH  049%=      5-min Rain = 0
KLO1 120428Z 18006KT 26/15 A3006 RMK A01 T02600146  RH  049%=      5-min Rain = 0
KLO1 120429Z 18006KT 26/15 A3006 RMK A01 T02600146  RH  049%=      5-min Rain = 0
KLO1 120430Z 18007KT 26/15 A3006 RMK A01 T02600146  RH  049%=      5-min Rain = 0
KLO1 120431Z 18006KT 26/15 A3006 RMK A01 T02590146  RH  050%=      5-min Rain = 0
KLO1 120432Z 18007KT 26/15 A3006 RMK A01 T02590146  RH  050%=      5-min Rain = 0
KLO1 120433Z 18007KT 26/15 A3006 RMK A01 T02590146  RH  050%=      5-min Rain = 0
KLO1 120434Z 18007KT 26/15 A3006 RMK A01 T02580146  RH  050%=      5-min Rain = 0
KLO1 120435Z 19007KT 26/15 A3006 RMK A01 T02580146  RH  050%=      5-min Rain = 0
KLO1 120436Z 19007KT 26/15 A3006 RMK A01 T02580146  RH  050%=      5-min Rain = 0
KLO1 120437Z 19006KT 26/15 A3006 RMK A01 T02580146  RH  050%=      5-min Rain = 0
KLO1 120438Z 19006KT 26/15 A3006 RMK A01 T02580146  RH  050%=      5-min Rain = 0
KLO1 120439Z 19006KT 26/15 A3007 RMK A01 T02580146  RH  050%=      5-min Rain = 0
KLO1 120440Z 19006KT 26/15 A3007 RMK A01 T02580147  RH  050%=      5-min Rain = 0
KLO1 120441Z 18006KT 26/15 A3007 RMK A01 T02570147  RH  050%=      5-min Rain = 0
KLO1 120442Z 18006KT 26/15 A3007 RMK A01 T02570147  RH  051%=      5-min Rain = 0
KLO1 120443Z 18006KT 26/15 A3007 RMK A01 T02570147  RH  051%=      5-min Rain = 0
KLO1 120444Z 18006KT 26/15 A3007 RMK A01 T02570147  RH  051%=      5-min Rain = 0
KLO1 120445Z 18006KT 26/15 A3007 RMK A01 T02560147  RH  051%=      5-min Rain = 0
KLO1 120446Z 18006KT 26/15 A3007 RMK A01 T02570146  RH  051%=      5-min Rain = 0
KLO1 120447Z 18006KT 26/15 A3007 RMK A01 T02570146  RH  050%=      5-min Rain = 0
KLO1 120448Z 18006KT 26/15 A3007 RMK A01 T02570146  RH  050%=      5-min Rain = 0
KLO1 120449Z 18006KT 26/15 A3007 RMK A01 T02570146  RH  050%=      5-min Rain = 0
KLO1 120450Z 18006KT 26/15 A3007 RMK A01 T02570146  RH  050%=      5-min Rain = 0
KLO1 120451Z 18006KT 26/15 A3007 RMK A01 T02570146  RH  050%=      5-min Rain = 0
KLO1 120452Z 18006KT 26/15 A3007 RMK A01 T02570146  RH  050%=      5-min Rain = 0
KLO1 120453Z 18006KT 26/15 A3007 RMK A01 T02570146  RH  050%=      5-min Rain = 0
KLO1 120454Z 18006KT 26/15 A3007 RMK A01 T02580146  RH  050%=      5-min Rain = 0
KLO1 120455Z 18006KT 26/15 A3007 RMK A01 T02570146  RH  050%=      5-min Rain = 0
KLO1 120456Z 18006KT 26/15 A3007 RMK A01 T02570146  RH  050%=      5-min Rain = 0
KLO1 120457Z 18006KT 26/15 A3007 RMK A01 T02570146  RH  050%=      5-min Rain = 0
KLO1 120458Z 18006KT 26/15 A3007 RMK A01 T02570145  RH  050%=      5-min Rain = 0
KLO1 120459Z 18006KT 26/15 A3007 RMK A01 T02570145  RH  050%=      5-min Rain = 0
KLO1 120500Z 18007KT 26/15 A3007 RMK A01 T02570145  RH  050%=      5-min Rain = 0

Page generated in 0.034 seconds.